Wetterdaten: Donnerstag, 26.12.2013
Datum Zeit Temp. Aussen +5cm Feuchte Auss Luftdruck Regen Sonnenschein Regendauer UV Solar Windben
26.12.2013 00:00 2,7 C 1,7 C 95 % 992,5 hPa 0,0 l/m 0 min 0 min 0,0 UV-I 0 W/m 2,6 km/h (1 Bft)
26.12.2013 00:02 2,7 C 1,7 C 95 % 992,5 hPa 0,0 l/m 0 min 0 min 0,0 UV-I 0 W/m 0,0 km/h (0 Bft)
26.12.2013 00:04 2,7 C 1,7 C 95 % 992,6 hPa 0,0 l/m 0 min 0 min 0,0 UV-I 0 W/m 0,0 km/h (0 Bft)
26.12.2013 00:06 2,7 C 1,7 C 95 % 992,6 hPa 0,0 l/m 0 min 0 min 0,0 UV-I 0 W/m 0,0 km/h (0 Bft)
26.12.2013 00:08 2,8 C 1,7 C 95 % 992,7 hPa 0,0 l/m 0 min 0 min 0,0 UV-I 0 W/m 0,0 km/h (0 Bft)
26.12.2013 00:10 2,8 C 1,7 C 96 % 992,7 hPa 0,0 l/m 0 min 0 min 0,0 UV-I 0 W/m 0,0 km/h (0 Bft)
26.12.2013 00:12 2,8 C 1,7 C 96 % 992,7 hPa 0,0 l/m 0 min 0 min 0,0 UV-I 0 W/m 0,0 km/h (0 Bft)
26.12.2013 00:14 2,8 C 1,7 C 96 % 992,7 hPa 0,0 l/m 0 min 0 min 0,0 UV-I 0 W/m 0,0 km/h (0 Bft)
26.12.2013 00:16 2,8 C 1,7 C 96 % 992,7 hPa 0,0 l/m 0 min 0 min 0,0 UV-I 0 W/m 0,0 km/h (0 Bft)
26.12.2013 00:18 2,8 C 1,7 C 96 % 992,7 hPa 0,0 l/m 0 min 0 min 0,0 UV-I 0 W/m 0,0 km/h (0 Bft)
26.12.2013 00:20 2,8 C 1,7 C 96 % 992,8 hPa 0,0 l/m 0 min 0 min 0,0 UV-I 0 W/m 0,0 km/h (0 Bft)
26.12.2013 00:22 2,8 C 1,7 C 96 % 992,9 hPa 0,0 l/m 0 min 0 min 0,0 UV-I 0 W/m 0,0 km/h (0 Bft)
26.12.2013 00:24 2,8 C 2,2 C 96 % 992,9 hPa 0,0 l/m 0 min 0 min 0,0 UV-I 0 W/m 0,0 km/h (0 Bft)
26.12.2013 00:26 2,9 C 2,2 C 96 % 992,8 hPa 0,0 l/m 0 min 0 min 0,0 UV-I 0 W/m 0,0 km/h (0 Bft)
26.12.2013 00:28 2,9 C 2,2 C 96 % 992,8 hPa 0,0 l/m 0 min 0 min 0,0 UV-I 0 W/m 0,0 km/h (0 Bft)
26.12.2013 00:30 2,9 C 2,2 C 96 % 992,8 hPa 0,0 l/m 0 min 0 min 0,0 UV-I 0 W/m 0,0 km/h (0 Bft)
26.12.2013 00:32 2,9 C 2,2 C 96 % 992,8 hPa 0,0 l/m 0 min 0 min 0,0 UV-I 0 W/m 0,0 km/h (0 Bft)
26.12.2013 00:34 2,9 C 1,7 C 96 % 992,8 hPa 0,0 l/m 0 min 0 min 0,0 UV-I 0 W/m 0,0 km/h (0 Bft)
26.12.2013 00:36 2,9 C 1,7 C 96 % 992,7 hPa 0,0 l/m 0 min 0 min 0,0 UV-I 0 W/m 0,0 km/h (0 Bft)
26.12.2013 00:38 2,9 C 1,7 C 96 % 992,6 hPa 0,0 l/m 0 min 0 min 0,0 UV-I 0 W/m 0,0 km/h (0 Bft)
26.12.2013 00:40 2,9 C 1,7 C 96 % 992,6 hPa 0,0 l/m 0 min 0 min 0,0 UV-I 0 W/m 0,0 km/h (0 Bft)
26.12.2013 00:42 2,9 C 1,7 C 96 % 992,7 hPa 0,0 l/m 0 min 0 min 0,0 UV-I 0 W/m 0,0 km/h (0 Bft)
26.12.2013 00:44 2,9 C 1,7 C 96 % 992,7 hPa 0,0 l/m 0 min 0 min 0,0 UV-I 0 W/m 0,0 km/h (0 Bft)
26.12.2013 00:46 2,9 C 1,7 C 96 % 992,7 hPa 0,0 l/m 0 min 0 min 0,0 UV-I 0 W/m 0,0 km/h (0 Bft)
26.12.2013 00:48 3,0 C 1,7 C 96 % 992,7 hPa 0,0 l/m 0 min 0 min 0,0 UV-I 0 W/m 0,0 km/h (0 Bft)
26.12.2013 00:50 3,0 C 1,7 C 96 % 992,7 hPa 0,0 l/m 0 min 0 min 0,0 UV-I 0 W/m 0,0 km/h (0 Bft)
26.12.2013 00:52 3,0 C 1,7 C 96 % 992,7 hPa 0,0 l/m 0 min 0 min 0,0 UV-I 0 W/m 0,0 km/h (0 Bft)
26.12.2013 00:54 3,1 C 1,7 C 96 % 992,7 hPa 0,0 l/m 0 min 0 min 0,0 UV-I 0 W/m 0,0 km/h (0 Bft)
26.12.2013 00:56 3,1 C 1,7 C 96 % 992,7 hPa 0,0 l/m 0 min 0 min 0,0 UV-I 0 W/m 0,0 km/h (0 Bft)
26.12.2013 00:58 3,1 C 1,7 C 96 % 992,7 hPa 0,0 l/m 0 min 0 min 0,0 UV-I 0 W/m 0,0 km/h (0 Bft)
26.12.2013 01:00 3,1 C 1,7 C 96 % 992,7 hPa 0,0 l/m 0 min 0 min 0,0 UV-I 0 W/m 0,0 km/h (0 Bft)
26.12.2013 01:02 3,1 C 1,7 C 96 % 992,7 hPa 0,0 l/m 0 min 0 min 0,0 UV-I 0 W/m 0,0 km/h (0 Bft)
26.12.2013 01:04 3,1 C 1,7 C 96 % 992,7 hPa 0,0 l/m 0 min 0 min 0,0 UV-I 0 W/m 0,0 km/h (0 Bft)
26.12.2013 01:06 3,1 C 1,7 C 96 % 992,7 hPa 0,0 l/m 0 min 0 min 0,0 UV-I 0 W/m 0,0 km/h (0 Bft)
26.12.2013 01:08 3,1 C 1,7 C 96 % 992,7 hPa 0,0 l/m 0 min 0 min 0,0 UV-I 0 W/m 0,0 km/h (0 Bft)
26.12.2013 01:10 3,1 C 1,7 C 96 % 992,7 hPa 0,0 l/m 0 min 0 min 0,0 UV-I 0 W/m 0,0 km/h (0 Bft)
26.12.2013 01:12 3,0 C 1,7 C 96 % 992,7 hPa 0,0 l/m 0 min 0 min 0,0 UV-I 0 W/m 0,0 km/h (0 Bft)
26.12.2013 01:14 3,1 C 1,7 C 96 % 992,6 hPa 0,0 l/m 0 min 0 min 0,0 UV-I 0 W/m 0,0 km/h (0 Bft)
26.12.2013 01:16 3,0 C 1,7 C 96 % 992,6 hPa 0,0 l/m 0 min 0 min 0,0 UV-I 0 W/m 5,1 km/h (1 Bft)
26.12.2013 01:18 3,0 C 1,7 C 96 % 992,6 hPa 0,0 l/m 0 min 0 min 0,0 UV-I 0 W/m 0,0 km/h (0 Bft)
26.12.2013 01:20 3,0 C 1,7 C 96 % 992,6 hPa 0,0 l/m 0 min 0 min 0,0 UV-I 0 W/m 0,0 km/h (0 Bft)
26.12.2013 01:22 3,0 C 1,7 C 96 % 992,6 hPa 0,0 l/m 0 min 0 min 0,0 UV-I 0 W/m 0,0 km/h (0 Bft)
26.12.2013 01:24 3,0 C 1,7 C 96 % 992,5 hPa 0,0 l/m 0 min 0 min 0,0 UV-I 0 W/m 7,7 km/h (2 Bft)
26.12.2013 01:26 3,1 C 1,7 C 96 % 992,6 hPa 0,0 l/m 0 min 0 min 0,0 UV-I 0 W/m 10,3 km/h (2 Bft)
26.12.2013 01:28 3,1 C 1,7 C 96 % 992,6 hPa 0,0 l/m 0 min 0 min 0,0 UV-I 0 W/m 2,6 km/h (1 Bft)
26.12.2013 01:30 3,1 C 2,2 C 96 % 992,6 hPa 0,0 l/m 0 min 0 min 0,0 UV-I 0 W/m 5,1 km/h (1 Bft)
26.12.2013 01:32 3,1 C 2,2 C 97 % 992,6 hPa 0,0 l/m 0 min 0 min 0,0 UV-I 0 W/m 2,6 km/h (1 Bft)
26.12.2013 01:34 3,2 C 2,2 C 96 % 992,6 hPa 0,0 l/m 0 min 0 min 0,0 UV-I 0 W/m 0,0 km/h (0 Bft)
26.12.2013 01:36 3,2 C 2,2 C 96 % 992,6 hPa 0,0 l/m 0 min 0 min 0,0 UV-I 0 W/m 5,1 km/h (1 Bft)
26.12.2013 01:38 3,2 C 2,2 C 96 % 992,6 hPa 0,0 l/m 0 min 0 min 0,0 UV-I 0 W/m 2,6 km/h (1 Bft)
26.12.2013 01:40 3,2 C 2,2 C 97 % 992,6 hPa 0,0 l/m 0 min 0 min 0,0 UV-I 0 W/m 7,7 km/h (2 Bft)
26.12.2013 01:42 3,3 C 2,2 C 97 % 992,6 hPa 0,0 l/m 0 min 0 min 0,0 UV-I 0 W/m 2,6 km/h (1 Bft)
26.12.2013 01:44 3,3 C 2,2 C 97 % 992,7 hPa 0,0 l/m 0 min 0 min 0,0 UV-I 0 W/m 10,3 km/h (2 Bft)
26.12.2013 01:46 3,3 C 2,2 C 97 % 992,7 hPa 0,0 l/m 0 min 0 min 0,0 UV-I 0 W/m 0,0 km/h (0 Bft)
26.12.2013 01:48 3,4 C 2,2 C 97 % 992,7 hPa 0,0 l/m 0 min 0 min 0,0 UV-I 0 W/m 0,0 km/h (0 Bft)
26.12.2013 01:50 3,4 C 2,2 C 97 % 992,7 hPa 0,0 l/m 0 min 0 min 0,0 UV-I 0 W/m 2,6 km/h (1 Bft)
26.12.2013 01:52 3,4 C 2,2 C 97 % 992,7 hPa 0,0 l/m 0 min 0 min 0,0 UV-I 0 W/m 5,1 km/h (1 Bft)
26.12.2013 01:54 3,4 C 2,2 C 97 % 992,7 hPa 0,0 l/m 0 min 0 min 0,0 UV-I 0 W/m 0,0 km/h (0 Bft)
26.12.2013 01:56 3,5 C 2,2 C 97 % 992,7 hPa 0,0 l/m 0 min 0 min 0,0 UV-I 0 W/m 7,7 km/h (2 Bft)
26.12.2013 01:58 3,5 C 2,8 C 97 % 992,7 hPa 0,0 l/m 0 min 0 min 0,0 UV-I 0 W/m 7,7 km/h (2 Bft)
26.12.2013 02:00 3,5 C 2,8 C 97 % 992,6 hPa 0,0 l/m 0 min 0 min 0,0 UV-I 0 W/m 5,1 km/h (1 Bft)
26.12.2013 02:02 3,6 C 2,8 C 97 % 992,6 hPa 0,0 l/m 0 min 0 min 0,0 UV-I 0 W/m 7,7 km/h (2 Bft)
26.12.2013 02:04 3,6 C 2,8 C 97 % 992,5 hPa 0,0 l/m 0 min 0 min 0,0 UV-I 0 W/m 0,0 km/h (0 Bft)
26.12.2013 02:06 3,6 C 2,8 C 97 % 992,6 hPa 0,0 l/m 0 min 0 min 0,0 UV-I 0 W/m 7,7 km/h (2 Bft)
26.12.2013 02:08 3,6 C 2,8 C 97 % 992,7 hPa 0,0 l/m 0 min 0 min 0,0 UV-I 0 W/m 0,0 km/h (0 Bft)
26.12.2013 02:10 3,6 C 2,8 C 97 % 992,7 hPa 0,0 l/m 0 min 0 min 0,0 UV-I 0 W/m 0,0 km/h (0 Bft)
26.12.2013 02:12 3,7 C 2,8 C 97 % 992,7 hPa 0,0 l/m 0 min 0 min 0,0 UV-I 0 W/m 0,0 km/h (0 Bft)
26.12.2013 02:14 3,7 C 2,8 C 97 % 992,7 hPa 0,0 l/m 0 min 0 min 0,0 UV-I 0 W/m 0,0 km/h (0 Bft)
26.12.2013 02:16 3,7 C 2,8 C 97 % 992,7 hPa 0,0 l/m 0 min 0 min 0,0 UV-I 0 W/m 0,0 km/h (0 Bft)
26.12.2013 02:18 3,7 C 2,8 C 97 % 992,6 hPa 0,0 l/m 0 min 0 min 0,0 UV-I 0 W/m 0,0 km/h (0 Bft)
26.12.2013 02:20 3,7 C 2,8 C 97 % 992,6 hPa 0,0 l/m 0 min 0 min 0,0 UV-I 0 W/m 0,0 km/h (0 Bft)
26.12.2013 02:22 3,7 C 2,8 C 97 % 992,6 hPa 0,0 l/m 0 min 0 min 0,0 UV-I 0 W/m 0,0 km/h (0 Bft)
26.12.2013 02:24 3,7 C 2,8 C 97 % 992,6 hPa 0,0 l/m 0 min 0 min 0,0 UV-I 0 W/m 0,0 km/h (0 Bft)
26.12.2013 02:26 3,7 C 2,8 C 97 % 992,6 hPa 0,0 l/m 0 min 0 min 0,0 UV-I 0 W/m 0,0 km/h (0 Bft)
26.12.2013 02:28 3,7 C 2,8 C 97 % 992,6 hPa 0,0 l/m 0 min 0 min 0,0 UV-I 0 W/m 0,0 km/h (0 Bft)
26.12.2013 02:30 3,7 C 2,8 C 97 % 992,7 hPa 0,0 l/m 0 min 0 min 0,0 UV-I 0 W/m 0,0 km/h (0 Bft)
26.12.2013 02:32 3,7 C 2,8 C 97 % 992,6 hPa 0,0 l/m 0 min 0 min 0,0 UV-I 0 W/m 0,0 km/h (0 Bft)
26.12.2013 02:34 3,7 C 2,8 C 97 % 992,6 hPa 0,0 l/m 0 min 0 min 0,0 UV-I 0 W/m 0,0 km/h (0 Bft)
26.12.2013 02:36 3,7 C 2,8 C 97 % 992,6 hPa 0,0 l/m 0 min 0 min 0,0 UV-I 0 W/m 0,0 km/h (0 Bft)
26.12.2013 02:38 3,8 C 2,8 C 97 % 992,6 hPa 0,0 l/m 0 min 0 min 0,0 UV-I 0 W/m 0,0 km/h (0 Bft)
26.12.2013 02:40 3,8 C 2,8 C 97 % 992,6 hPa 0,0 l/m 0 min 0 min 0,0 UV-I 0 W/m 0,0 km/h (0 Bft)
26.12.2013 02:42 3,8 C 2,8 C 97 % 992,5 hPa 0,0 l/m 0 min 0 min 0,0 UV-I 0 W/m 0,0 km/h (0 Bft)
26.12.2013 02:44 3,8 C 2,8 C 97 % 992,5 hPa 0,0 l/m 0 min 0 min 0,0 UV-I 0 W/m 0,0 km/h (0 Bft)
26.12.2013 02:46 3,8 C 2,8 C 97 % 992,5 hPa 0,0 l/m 0 min 0 min 0,0 UV-I 0 W/m 0,0 km/h (0 Bft)
26.12.2013 02:48 3,8 C 2,8 C 97 % 992,5 hPa 0,0 l/m 0 min 0 min 0,0 UV-I 0 W/m 0,0 km/h (0 Bft)
26.12.2013 02:50 3,8 C 2,8 C 97 % 992,5 hPa 0,0 l/m 0 min 0 min 0,0 UV-I 0 W/m 0,0 km/h (0 Bft)
26.12.2013 02:52 3,8 C 2,8 C 97 % 992,5 hPa 0,0 l/m 0 min 0 min 0,0 UV-I 0 W/m 0,0 km/h (0 Bft)
26.12.2013 02:54 3,8 C 2,8 C 97 % 992,5 hPa 0,0 l/m 0 min 0 min 0,0 UV-I 0 W/m 0,0 km/h (0 Bft)
26.12.2013 02:56 3,8 C 2,8 C 97 % 992,5 hPa 0,0 l/m 0 min 0 min 0,0 UV-I 0 W/m 0,0 km/h (0 Bft)
26.12.2013 02:58 3,8 C 2,8 C 97 % 992,5 hPa 0,0 l/m 0 min 0 min 0,0 UV-I 0 W/m 0,0 km/h (0 Bft)
26.12.2013 03:00 3,8 C 2,8 C 97 % 992,5 hPa 0,0 l/m 0 min 0 min 0,0 UV-I 0 W/m 0,0 km/h (0 Bft)
26.12.2013 03:02 3,8 C 2,8 C 97 % 992,5 hPa 0,0 l/m 0 min 0 min 0,0 UV-I 0 W/m 5,1 km/h (1 Bft)
26.12.2013 03:04 3,8 C 2,8 C 97 % 992,5 hPa 0,0 l/m 0 min 0 min 0,0 UV-I 0 W/m 2,6 km/h (1 Bft)
26.12.2013 03:06 3,8 C 2,8 C 97 % 992,6 hPa 0,0 l/m 0 min 0 min 0,0 UV-I 0 W/m 2,6 km/h (1 Bft)
26.12.2013 03:08 3,8 C 2,8 C 97 % 992,6 hPa 0,0 l/m 0 min 0 min 0,0 UV-I 0 W/m 2,6 km/h (1 Bft)
26.12.2013 03:10 3,8 C 2,8 C 97 % 992,6 hPa 0,0 l/m 0 min 0 min 0,0 UV-I 0 W/m 0,0 km/h (0 Bft)
26.12.2013 03:12 3,8 C 2,8 C 97 % 992,6 hPa 0,0 l/m 0 min 0 min 0,0 UV-I 0 W/m 0,0 km/h (0 Bft)
26.12.2013 03:14 3,8 C 2,8 C 97 % 992,6 hPa 0,0 l/m 0 min 0 min 0,0 UV-I 0 W/m 0,0 km/h (0 Bft)
26.12.2013 03:16 3,8 C 2,8 C 97 % 992,6 hPa 0,0 l/m 0 min 0 min 0,0 UV-I 0 W/m 0,0 km/h (0 Bft)
26.12.2013 03:18 3,8 C 2,8 C 97 % 992,5 hPa 0,0 l/m 0 min 0 min 0,0 UV-I 0 W/m 0,0 km/h (0 Bft)
26.12.2013 03:20 3,8 C 2,8 C 97 % 992,4 hPa 0,0 l/m 0 min 0 min 0,0 UV-I 0 W/m 0,0 km/h (0 Bft)
26.12.2013 03:22 3,8 C 2,8 C 97 % 992,4 hPa 0,0 l/m 0 min 0 min 0,0 UV-I 0 W/m 0,0 km/h (0 Bft)
26.12.2013 03:24 3,8 C 2,2 C 97 % 992,5 hPa 0,0 l/m 0 min 0 min 0,0 UV-I 0 W/m 5,1 km/h (1 Bft)
26.12.2013 03:26 3,8 C 2,8 C 97 % 992,5 hPa 0,0 l/m 0 min 0 min 0,0 UV-I 0 W/m 2,6 km/h (1 Bft)
26.12.2013 03:28 3,8 C 2,8 C 97 % 992,5 hPa 0,0 l/m 0 min 0 min 0,0 UV-I 0 W/m 0,0 km/h (0 Bft)
26.12.2013 03:30 3,8 C 2,8 C 97 % 992,5 hPa 0,0 l/m 0 min 0 min 0,0 UV-I 0 W/m 0,0 km/h (0 Bft)
26.12.2013 03:32 3,8 C 2,8 C 97 % 992,5 hPa 0,0 l/m 0 min 0 min 0,0 UV-I 0 W/m 5,1 km/h (1 Bft)
26.12.2013 03:34 3,8 C 2,8 C 97 % 992,4 hPa 0,0 l/m 0 min 0 min 0,0 UV-I 0 W/m 0,0 km/h (0 Bft)
26.12.2013 03:36 3,8 C 2,8 C 97 % 992,4 hPa 0,0 l/m 0 min 0 min 0,0 UV-I 0 W/m 0,0 km/h (0 Bft)
26.12.2013 03:38 3,8 C 2,8 C 97 % 992,5 hPa 0,0 l/m 0 min 0 min 0,0 UV-I 0 W/m 0,0 km/h (0 Bft)
26.12.2013 03:40 3,8 C 2,8 C 97 % 992,5 hPa 0,0 l/m 0 min 0 min 0,0 UV-I 0 W/m 0,0 km/h (0 Bft)
26.12.2013 03:42 3,8 C 2,8 C 97 % 992,5 hPa 0,0 l/m 0 min 0 min 0,0 UV-I 0 W/m 2,6 km/h (1 Bft)
26.12.2013 03:44 3,8 C 2,8 C 97 % 992,4 hPa 0,0 l/m 0 min 0 min 0,0 UV-I 0 W/m 0,0 km/h (0 Bft)
26.12.2013 03:46 3,9 C 2,8 C 97 % 992,5 hPa 0,0 l/m 0 min 0 min 0,0 UV-I 0 W/m 0,0 km/h (0 Bft)
26.12.2013 03:48 3,9 C 2,8 C 97 % 992,5 hPa 0,0 l/m 0 min 0 min 0,0 UV-I 0 W/m 0,0 km/h (0 Bft)
26.12.2013 03:50 3,9 C 2,8 C 97 % 992,4 hPa 0,0 l/m 0 min 0 min 0,0 UV-I 0 W/m 0,0 km/h (0 Bft)
26.12.2013 03:52 3,9 C 2,8 C 97 % 992,5 hPa 0,0 l/m 0 min 0 min 0,0 UV-I 0 W/m 5,1 km/h (1 Bft)
26.12.2013 03:54 3,9 C 2,8 C 97 % 992,5 hPa 0,0 l/m 0 min 0 min 0,0 UV-I 0 W/m 5,1 km/h (1 Bft)
26.12.2013 03:56 3,9 C 2,8 C 97 % 992,4 hPa 0,0 l/m 0 min 0 min 0,0 UV-I 0 W/m 2,6 km/h (1 Bft)
26.12.2013 03:58 3,9 C 2,8 C 97 % 992,5 hPa 0,0 l/m 0 min 0 min 0,0 UV-I 0 W/m 0,0 km/h (0 Bft)
26.12.2013 04:00 3,9 C 2,8 C 97 % 992,6 hPa 0,0 l/m 0 min 0 min 0,0 UV-I 0 W/m 0,0 km/h (0 Bft)
26.12.2013 04:02 3,9 C 2,8 C 97 % 992,6 hPa 0,0 l/m 0 min 0 min 0,0 UV-I 0 W/m 0,0 km/h (0 Bft)
26.12.2013 04:04 3,9 C 2,8 C 97 % 992,6 hPa 0,0 l/m 0 min 0 min 0,0 UV-I 0 W/m 0,0 km/h (0 Bft)
26.12.2013 04:06 3,9 C 2,8 C 97 % 992,6 hPa 0,0 l/m 0 min 0 min 0,0 UV-I 0 W/m 0,0 km/h (0 Bft)
26.12.2013 04:08 3,9 C 2,8 C 97 % 992,6 hPa 0,0 l/m 0 min 0 min 0,0 UV-I 0 W/m 0,0 km/h (0 Bft)
26.12.2013 04:10 3,9 C 2,8 C 97 % 992,7 hPa 0,0 l/m 0 min 0 min 0,0 UV-I 0 W/m 0,0 km/h (0 Bft)
26.12.2013 04:12 3,9 C 2,8 C 97 % 992,6 hPa 0,0 l/m 0 min 0 min 0,0 UV-I 0 W/m 0,0 km/h (0 Bft)
26.12.2013 04:14 3,9 C 2,8 C 97 % 992,7 hPa 0,0 l/m 0 min 0 min 0,0 UV-I 0 W/m 0,0 km/h (0 Bft)
26.12.2013 04:16 3,9 C 2,8 C 97 % 992,7 hPa 0,0 l/m 0 min 0 min 0,0 UV-I 0 W/m 2,6 km/h (1 Bft)
26.12.2013 04:18 3,9 C 2,8 C 97 % 992,7 hPa 0,0 l/m 0 min 0 min 0,0 UV-I 0 W/m 5,1 km/h (1 Bft)
26.12.2013 04:20 3,9 C 2,8 C 97 % 992,8 hPa 0,0 l/m 0 min 0 min 0,0 UV-I 0 W/m 5,1 km/h (1 Bft)
26.12.2013 04:22 3,9 C 2,8 C 97 % 992,8 hPa 0,0 l/m 0 min 0 min 0,0 UV-I 0 W/m 0,0 km/h (0 Bft)
26.12.2013 04:24 3,9 C 2,8 C 97 % 992,9 hPa 0,0 l/m 0 min 0 min 0,0 UV-I 0 W/m 7,7 km/h (2 Bft)
26.12.2013 04:26 3,9 C 2,8 C 97 % 993,0 hPa 0,0 l/m 0 min 0 min 0,0 UV-I 0 W/m 0,0 km/h (0 Bft)
26.12.2013 04:28 3,9 C 2,8 C 97 % 992,9 hPa 0,0 l/m 0 min 0 min 0,0 UV-I 0 W/m 0,0 km/h (0 Bft)
26.12.2013 04:30 3,9 C 2,8 C 97 % 993,0 hPa 0,0 l/m 0 min 0 min 0,0 UV-I 0 W/m 0,0 km/h (0 Bft)
26.12.2013 04:32 3,9 C 2,8 C 97 % 993,0 hPa 0,0 l/m 0 min 0 min 0,0 UV-I 0 W/m 0,0 km/h (0 Bft)
26.12.2013 04:34 3,9 C 2,8 C 97 % 993,1 hPa 0,0 l/m 0 min 0 min 0,0 UV-I 0 W/m 0,0 km/h (0 Bft)
26.12.2013 04:36 3,9 C 2,8 C 97 % 993,1 hPa 0,0 l/m 0 min 0 min 0,0 UV-I 0 W/m 0,0 km/h (0 Bft)
26.12.2013 04:38 4,0 C 3,3 C 97 % 993,1 hPa 0,0 l/m 0 min 0 min 0,0 UV-I 0 W/m 7,7 km/h (2 Bft)
26.12.2013 04:40 4,0 C 3,3 C 97 % 993,2 hPa 0,0 l/m 0 min 0 min 0,0 UV-I 0 W/m 0,0 km/h (0 Bft)
26.12.2013 04:42 4,0 C 3,3 C 98 % 993,1 hPa 0,0 l/m 0 min 0 min 0,0 UV-I 0 W/m 0,0 km/h (0 Bft)
26.12.2013 04:44 4,1 C 3,3 C 98 % 993,1 hPa 0,0 l/m 0 min 0 min 0,0 UV-I 0 W/m 2,6 km/h (1 Bft)
26.12.2013 04:46 4,1 C 3,3 C 98 % 993,1 hPa 0,0 l/m 0 min 0 min 0,0 UV-I 0 W/m 5,1 km/h (1 Bft)
26.12.2013 04:48 4,1 C 3,3 C 98 % 993,1 hPa 0,0 l/m 0 min 0 min 0,0 UV-I 0 W/m 5,1 km/h (1 Bft)
26.12.2013 04:50 4,1 C 3,3 C 98 % 993,1 hPa 0,0 l/m 0 min 0 min 0,0 UV-I 0 W/m 0,0 km/h (0 Bft)
26.12.2013 04:52 4,2 C 3,3 C 98 % 993,1 hPa 0,0 l/m 0 min 0 min 0,0 UV-I 0 W/m 10,3 km/h (2 Bft)
26.12.2013 04:54 4,2 C 3,3 C 98 % 993,2 hPa 0,0 l/m 0 min 0 min 0,0 UV-I 0 W/m 5,1 km/h (1 Bft)
26.12.2013 04:56 4,2 C 3,3 C 97 % 993,2 hPa 0,0 l/m 0 min 0 min 0,0 UV-I 0 W/m 0,0 km/h (0 Bft)
26.12.2013 04:58 4,2 C 3,3 C 97 % 993,2 hPa 0,0 l/m 0 min 0 min 0,0 UV-I 0 W/m 7,7 km/h (2 Bft)
26.12.2013 05:00 4,2 C 3,3 C 97 % 993,2 hPa 0,0 l/m 0 min 0 min 0,0 UV-I 0 W/m 7,7 km/h (2 Bft)
26.12.2013 05:02 4,2 C 3,3 C 97 % 993,2 hPa 0,0 l/m 0 min 0 min 0,0 UV-I 0 W/m 7,7 km/h (2 Bft)
26.12.2013 05:04 4,2 C 3,3 C 97 % 993,2 hPa 0,0 l/m 0 min 0 min 0,0 UV-I 0 W/m 10,3 km/h (2 Bft)
26.12.2013 05:06 4,3 C 3,3 C 97 % 993,2 hPa 0,0 l/m 0 min 0 min 0,0 UV-I 0 W/m 5,1 km/h (1 Bft)
26.12.2013 05:08 4,3 C 3,3 C 97 % 993,2 hPa 0,0 l/m 0 min 0 min 0,0 UV-I 0 W/m 7,7 km/h (2 Bft)
26.12.2013 05:10 4,3 C 3,3 C 97 % 993,2 hPa 0,0 l/m 0 min 0 min 0,0 UV-I 0 W/m 7,7 km/h (2 Bft)
26.12.2013 05:12 4,3 C 3,3 C 97 % 993,2 hPa 0,0 l/m 0 min 0 min 0,0 UV-I 0 W/m 7,7 km/h (2 Bft)
26.12.2013 05:14 4,4 C 3,3 C 98 % 993,2 hPa 0,0 l/m 0 min 0 min 0,0 UV-I 0 W/m 7,7 km/h (2 Bft)
26.12.2013 05:16 4,4 C 3,3 C 98 % 993,2 hPa 0,0 l/m 0 min 0 min 0,0 UV-I 0 W/m 10,3 km/h (2 Bft)
26.12.2013 05:18 4,4 C 3,3 C 98 % 993,2 hPa 0,0 l/m 0 min 0 min 0,0 UV-I 0 W/m 5,1 km/h (1 Bft)
26.12.2013 05:20 4,4 C 3,3 C 98 % 993,2 hPa 0,0 l/m 0 min 0 min 0,0 UV-I 0 W/m 7,7 km/h (2 Bft)
26.12.2013 05:22 4,4 C 3,9 C 98 % 993,2 hPa 0,0 l/m 0 min 0 min 0,0 UV-I 0 W/m 12,9 km/h (3 Bft)
26.12.2013 05:24 4,4 C 3,9 C 98 % 993,2 hPa 0,0 l/m 0 min 0 min 0,0 UV-I 0 W/m 7,7 km/h (2 Bft)
26.12.2013 05:26 4,5 C 3,9 C 98 % 993,2 hPa 0,0 l/m 0 min 0 min 0,0 UV-I 0 W/m 10,3 km/h (2 Bft)
26.12.2013 05:28 4,5 C 3,9 C 98 % 993,1 hPa 0,0 l/m 0 min 0 min 0,0 UV-I 0 W/m 10,3 km/h (2 Bft)
26.12.2013 05:30 4,5 C 3,9 C 98 % 993,1 hPa 0,0 l/m 0 min 0 min 0,0 UV-I 0 W/m 2,6 km/h (1 Bft)
26.12.2013 05:32 4,6 C 3,9 C 98 % 993,1 hPa 0,0 l/m 0 min 0 min 0,0 UV-I 0 W/m 7,7 km/h (2 Bft)
26.12.2013 05:34 4,6 C 3,9 C 98 % 993,1 hPa 0,0 l/m 0 min 0 min 0,0 UV-I 0 W/m 10,3 km/h (2 Bft)
26.12.2013 05:36 4,6 C 3,9 C 98 % 993,1 hPa 0,0 l/m 0 min 0 min 0,0 UV-I 0 W/m 10,3 km/h (2 Bft)
26.12.2013 05:38 4,6 C 3,9 C 98 % 993,1 hPa 0,0 l/m 0 min 0 min 0,0 UV-I 0 W/m 7,7 km/h (2 Bft)
26.12.2013 05:40 4,6 C 3,9 C 98 % 993,1 hPa 0,0 l/m 0 min 0 min 0,0 UV-I 0 W/m 7,7 km/h (2 Bft)
26.12.2013 05:42 4,7 C 3,9 C 98 % 993,1 hPa 0,0 l/m 0 min 0 min 0,0 UV-I 0 W/m 7,7 km/h (2 Bft)
26.12.2013 05:44 4,7 C 3,9 C 98 % 993,2 hPa 0,0 l/m 0 min 0 min 0,0 UV-I 0 W/m 5,1 km/h (1 Bft)
26.12.2013 05:46 4,7 C 3,9 C 98 % 993,1 hPa 0,0 l/m 0 min 0 min 0,0 UV-I 0 W/m 12,9 km/h (3 Bft)
26.12.2013 05:48 4,7 C 3,9 C 98 % 993,1 hPa 0,0 l/m 0 min 0 min 0,0 UV-I 0 W/m 2,6 km/h (1 Bft)
26.12.2013 05:50 4,7 C 3,9 C 98 % 993,2 hPa 0,0 l/m 0 min 0 min 0,0 UV-I 0 W/m 10,3 km/h (2 Bft)
26.12.2013 05:52 4,7 C 3,9 C 98 % 993,1 hPa 0,0 l/m 0 min 0 min 0,0 UV-I 0 W/m 7,7 km/h (2 Bft)
26.12.2013 05:54 4,7 C 3,9 C 98 % 993,1 hPa 0,0 l/m 0 min 0 min 0,0 UV-I 0 W/m 0,0 km/h (0 Bft)
26.12.2013 05:56 4,7 C 3,9 C 98 % 993,1 hPa 0,0 l/m 0 min 0 min 0,0 UV-I 0 W/m 7,7 km/h (2 Bft)
26.12.2013 05:58 4,7 C 3,9 C 98 % 993,1 hPa 0,0 l/m 0 min 0 min 0,0 UV-I 0 W/m 0,0 km/h (0 Bft)
26.12.2013 06:00 4,7 C 3,9 C 98 % 993,1 hPa 0,0 l/m 0 min 0 min 0,0 UV-I 0 W/m 0,0 km/h (0 Bft)
26.12.2013 06:02 4,7 C 3,9 C 98 % 993,1 hPa 0,0 l/m 0 min 0 min 0,0 UV-I 0 W/m 0,0 km/h (0 Bft)
26.12.2013 06:04 4,8 C 3,9 C 98 % 993,1 hPa 0,0 l/m 0 min 0 min 0,0 UV-I 0 W/m 0,0 km/h (0 Bft)
26.12.2013 06:06 4,8 C 3,9 C 98 % 993,1 hPa 0,0 l/m 0 min 0 min 0,0 UV-I 0 W/m 0,0 km/h (0 Bft)
26.12.2013 06:08 4,8 C 3,9 C 98 % 993,1 hPa 0,0 l/m 0 min 0 min 0,0 UV-I 0 W/m 0,0 km/h (0 Bft)
26.12.2013 06:10 4,8 C 3,9 C 98 % 993,1 hPa 0,0 l/m 0 min 0 min 0,0 UV-I 0 W/m 0,0 km/h (0 Bft)
26.12.2013 06:12 4,8 C 3,9 C 98 % 993,1 hPa 0,0 l/m 0 min 0 min 0,0 UV-I 0 W/m 0,0 km/h (0 Bft)
26.12.2013 06:14 4,8 C 3,9 C 98 % 993,1 hPa 0,0 l/m 0 min 0 min 0,0 UV-I 0 W/m 0,0 km/h (0 Bft)
26.12.2013 06:16 4,8 C 3,9 C 98 % 993,1 hPa 0,0 l/m 0 min 0 min 0,0 UV-I 0 W/m 0,0 km/h (0 Bft)
26.12.2013 06:18 4,8 C 3,9 C 98 % 993,2 hPa 0,0 l/m 0 min 0 min 0,0 UV-I 0 W/m 0,0 km/h (0 Bft)
26.12.2013 06:20 4,8 C 3,9 C 98 % 993,2 hPa 0,0 l/m 0 min 0 min 0,0 UV-I 0 W/m 2,6 km/h (1 Bft)
26.12.2013 06:22 4,8 C 3,9 C 98 % 993,2 hPa 0,0 l/m 0 min 0 min 0,0 UV-I 0 W/m 0,0 km/h (0 Bft)
26.12.2013 06:24 4,8 C 3,9 C 98 % 993,2 hPa 0,0 l/m 0 min 0 min 0,0 UV-I 0 W/m 0,0 km/h (0 Bft)
26.12.2013 06:26 4,8 C 3,9 C 98 % 993,2 hPa 0,0 l/m 0 min 0 min 0,0 UV-I 0 W/m 0,0 km/h (0 Bft)
26.12.2013 06:28 4,8 C 3,9 C 98 % 993,3 hPa 0,0 l/m 0 min 0 min 0,0 UV-I 0 W/m 0,0 km/h (0 Bft)
26.12.2013 06:30 4,8 C 3,9 C 98 % 993,3 hPa 0,0 l/m 0 min 0 min 0,0 UV-I 0 W/m 0,0 km/h (0 Bft)
26.12.2013 06:32 4,8 C 3,9 C 98 % 993,3 hPa 0,0 l/m 0 min 0 min 0,0 UV-I 0 W/m 0,0 km/h (0 Bft)
26.12.2013 06:34 4,8 C 3,9 C 98 % 993,4 hPa 0,0 l/m 0 min 0 min 0,0 UV-I 0 W/m 0,0 km/h (0 Bft)
26.12.2013 06:36 4,8 C 3,9 C 98 % 993,3 hPa 0,0 l/m 0 min 0 min 0,0 UV-I 0 W/m 0,0 km/h (0 Bft)
26.12.2013 06:38 4,8 C 3,9 C 98 % 993,3 hPa 0,0 l/m 0 min 0 min 0,0 UV-I 0 W/m 0,0 km/h (0 Bft)
26.12.2013 06:40 4,8 C 3,9 C 98 % 993,3 hPa 0,0 l/m 0 min 0 min 0,0 UV-I 0 W/m 0,0 km/h (0 Bft)
26.12.2013 06:42 4,8 C 3,9 C 98 % 993,3 hPa 0,0 l/m 0 min 0 min 0,0 UV-I 0 W/m 0,0 km/h (0 Bft)
26.12.2013 06:44 4,8 C 3,9 C 98 % 993,3 hPa 0,0 l/m 0 min 0 min 0,0 UV-I 0 W/m 0,0 km/h (0 Bft)
26.12.2013 06:46 4,8 C 3,9 C 98 % 993,3 hPa 0,0 l/m 0 min 0 min 0,0 UV-I 0 W/m 0,0 km/h (0 Bft)
26.12.2013 06:48 4,8 C 3,9 C 97 % 993,4 hPa 0,0 l/m 0 min 0 min 0,0 UV-I 0 W/m 0,0 km/h (0 Bft)
26.12.2013 06:50 4,8 C 3,9 C 97 % 993,4 hPa 0,0 l/m 0 min 0 min 0,0 UV-I 0 W/m 0,0 km/h (0 Bft)
26.12.2013 06:52 4,8 C 3,9 C 97 % 993,5 hPa 0,0 l/m 0 min 0 min 0,0 UV-I 0 W/m 0,0 km/h (0 Bft)
26.12.2013 06:54 4,8 C 3,9 C 97 % 993,5 hPa 0,0 l/m 0 min 0 min 0,0 UV-I 0 W/m 0,0 km/h (0 Bft)
26.12.2013 06:56 4,8 C 3,9 C 97 % 993,5 hPa 0,0 l/m 0 min 0 min 0,0 UV-I 0 W/m 0,0 km/h (0 Bft)
26.12.2013 06:58 4,8 C 3,9 C 97 % 993,5 hPa 0,0 l/m 0 min 0 min 0,0 UV-I 0 W/m 0,0 km/h (0 Bft)
26.12.2013 07:00 4,8 C 3,9 C 97 % 993,5 hPa 0,0 l/m 0 min 0 min 0,0 UV-I 0 W/m 0,0 km/h (0 Bft)
26.12.2013 07:02 4,8 C 3,9 C 97 % 993,5 hPa 0,0 l/m 0 min 0 min 0,0 UV-I 0 W/m 0,0 km/h (0 Bft)
26.12.2013 07:04 4,8 C 3,9 C 97 % 993,5 hPa 0,0 l/m 0 min 0 min 0,0 UV-I 0 W/m 0,0 km/h (0 Bft)
26.12.2013 07:06 4,8 C 3,3 C 97 % 993,5 hPa 0,0 l/m 0 min 0 min 0,0 UV-I 0 W/m 0,0 km/h (0 Bft)
26.12.2013 07:08 4,8 C 3,3 C 97 % 993,4 hPa 0,0 l/m 0 min 0 min 0,0 UV-I 0 W/m 0,0 km/h (0 Bft)
26.12.2013 07:10 4,8 C 3,3 C 97 % 993,5 hPa 0,0 l/m 0 min 0 min 0,0 UV-I 0 W/m 0,0 km/h (0 Bft)
26.12.2013 07:12 4,8 C 3,3 C 97 % 993,5 hPa 0,0 l/m 0 min 0 min 0,0 UV-I 0 W/m 0,0 km/h (0 Bft)
26.12.2013 07:14 4,8 C 3,3 C 97 % 993,5 hPa 0,0 l/m 0 min 0 min 0,0 UV-I 0 W/m 0,0 km/h (0 Bft)
26.12.2013 07:16 4,8 C 3,3 C 97 % 993,5 hPa 0,0 l/m 0 min 0 min 0,0 UV-I 0 W/m 0,0 km/h (0 Bft)
26.12.2013 07:18 4,8 C 3,3 C 97 % 993,6 hPa 0,0 l/m 0 min 0 min 0,0 UV-I 0 W/m 0,0 km/h (0 Bft)
26.12.2013 07:20 4,8 C 3,3 C 97 % 993,6 hPa 0,0 l/m 0 min 0 min 0,0 UV-I 0 W/m 0,0 km/h (0 Bft)
26.12.2013 07:22 4,8 C 3,3 C 97 % 993,6 hPa 0,0 l/m 0 min 0 min 0,0 UV-I 0 W/m 0,0 km/h (0 Bft)
26.12.2013 07:24 4,8 C 3,3 C 97 % 993,6 hPa 0,0 l/m 0 min 0 min 0,0 UV-I 0 W/m 0,0 km/h (0 Bft)
26.12.2013 07:26 4,8 C 3,3 C 97 % 993,5 hPa 0,0 l/m 0 min 0 min 0,0 UV-I 0 W/m 0,0 km/h (0 Bft)
26.12.2013 07:28 4,8 C 3,3 C 97 % 993,5 hPa 0,0 l/m 0 min 0 min 0,0 UV-I 0 W/m 0,0 km/h (0 Bft)
26.12.2013 07:30 4,8 C 3,3 C 97 % 993,5 hPa 0,0 l/m 0 min 0 min 0,0 UV-I 0 W/m 0,0 km/h (0 Bft)
26.12.2013 07:32 4,8 C 3,3 C 97 % 993,5 hPa 0,0 l/m 0 min 0 min 0,0 UV-I 0 W/m 0,0 km/h (0 Bft)
26.12.2013 07:34 4,8 C 2,8 C 97 % 993,5 hPa 0,0 l/m 0 min 0 min 0,0 UV-I 0 W/m 0,0 km/h (0 Bft)
26.12.2013 07:36 4,7 C 2,8 C 97 % 993,5 hPa 0,0 l/m 0 min 0 min 0,0 UV-I 0 W/m 0,0 km/h (0 Bft)
26.12.2013 07:38 4,7 C 2,8 C 97 % 993,5 hPa 0,0 l/m 0 min 0 min 0,0 UV-I 0 W/m 0,0 km/h (0 Bft)
26.12.2013 07:40 4,7 C 2,8 C 97 % 993,5 hPa 0,0 l/m 0 min 0 min 0,0 UV-I 0 W/m 0,0 km/h (0 Bft)
26.12.2013 07:42 4,7 C 2,8 C 97 % 993,5 hPa 0,0 l/m 0 min 0 min 0,0 UV-I 0 W/m 0,0 km/h (0 Bft)
26.12.2013 07:44 4,7 C 2,8 C 97 % 993,5 hPa 0,0 l/m 0 min 0 min 0,0 UV-I 0 W/m 0,0 km/h (0 Bft)
26.12.2013 07:46 4,6 C 2,8 C 97 % 993,4 hPa 0,0 l/m 0 min 0 min 0,0 UV-I 0 W/m 0,0 km/h (0 Bft)
26.12.2013 07:48 4,6 C 2,8 C 97 % 993,5 hPa 0,0 l/m 0 min 0 min 0,0 UV-I 0 W/m 0,0 km/h (0 Bft)
26.12.2013 07:50 4,6 C 2,2 C 97 % 993,5 hPa 0,0 l/m 0 min 0 min 0,0 UV-I 0 W/m 0,0 km/h (0 Bft)
26.12.2013 07:52 4,6 C 2,2 C 97 % 993,4 hPa 0,0 l/m 0 min 0 min 0,0 UV-I 0 W/m 0,0 km/h (0 Bft)
26.12.2013 07:54 4,5 C 2,2 C 97 % 993,5 hPa 0,0 l/m 0 min 0 min 0,0 UV-I 0 W/m 0,0 km/h (0 Bft)
26.12.2013 07:56 4,5 C 2,2 C 97 % 993,4 hPa 0,0 l/m 0 min 0 min 0,0 UV-I 0 W/m 0,0 km/h (0 Bft)
26.12.2013 07:58 4,4 C 2,2 C 97 % 993,4 hPa 0,0 l/m 0 min 0 min 0,0 UV-I 0 W/m 0,0 km/h (0 Bft)
26.12.2013 08:00 4,4 C 2,2 C 97 % 993,5 hPa 0,0 l/m 0 min 0 min 0,0 UV-I 0 W/m 0,0 km/h (0 Bft)
26.12.2013 08:02 4,4 C 2,2 C 97 % 993,5 hPa 0,0 l/m 0 min 0 min 0,0 UV-I 0 W/m 0,0 km/h (0 Bft)
26.12.2013 08:04 4,4 C 2,2 C 97 % 993,5 hPa 0,0 l/m 0 min 0 min 0,0 UV-I 0 W/m 0,0 km/h (0 Bft)
26.12.2013 08:06 4,3 C 2,2 C 97 % 993,5 hPa 0,0 l/m 0 min 0 min 0,0 UV-I 0 W/m 0,0 km/h (0 Bft)
26.12.2013 08:08 4,3 C 2,2 C 97 % 993,6 hPa 0,0 l/m 0 min 0 min 0,0 UV-I 0 W/m 0,0 km/h (0 Bft)
26.12.2013 08:10 4,3 C 2,2 C 97 % 993,6 hPa 0,0 l/m 0 min 0 min 0,0 UV-I 0 W/m 0,0 km/h (0 Bft)
26.12.2013 08:12 4,3 C 2,2 C 97 % 993,7 hPa 0,0 l/m 0 min 0 min 0,0 UV-I 0 W/m 0,0 km/h (0 Bft)
26.12.2013 08:14 4,2 C 2,2 C 97 % 993,8 hPa 0,0 l/m 0 min 0 min 0,0 UV-I 0 W/m 0,0 km/h (0 Bft)
26.12.2013 08:16 4,2 C 2,2 C 97 % 993,9 hPa 0,0 l/m 0 min 0 min 0,0 UV-I 0 W/m 0,0 km/h (0 Bft)
26.12.2013 08:18 4,2 C 1,7 C 100 % 993,9 hPa 0,0 l/m 0 min 0 min 0,0 UV-I 0 W/m 0,0 km/h (0 Bft)
26.12.2013 08:20 4,1 C 1,7 C 97 % 993,9 hPa 0,0 l/m 0 min 0 min 0,0 UV-I 0 W/m 0,0 km/h (0 Bft)
26.12.2013 08:22 4,1 C 1,7 C 97 % 994,0 hPa 0,0 l/m 0 min 0 min 0,0 UV-I 0 W/m 0,0 km/h (0 Bft)
26.12.2013 08:24 4,1 C 1,7 C 97 % 994,0 hPa 0,0 l/m 0 min 0 min 0,0 UV-I 0 W/m 0,0 km/h (0 Bft)
26.12.2013 08:26 4,0 C 1,7 C 97 % 994,0 hPa 0,0 l/m 0 min 0 min 0,0 UV-I 0 W/m 0,0 km/h (0 Bft)
26.12.2013 08:28 3,9 C 1,7 C 97 % 994,1 hPa 0,0 l/m 0 min 0 min 0,0 UV-I 0 W/m 0,0 km/h (0 Bft)
26.12.2013 08:30 3,9 C 1,7 C 97 % 994,1 hPa 0,0 l/m 0 min 0 min 0,0 UV-I 0 W/m 0,0 km/h (0 Bft)
26.12.2013 08:32 3,9 C 1,7 C 97 % 994,2 hPa 0,0 l/m 0 min 0 min 0,0 UV-I 0 W/m 0,0 km/h (0 Bft)
26.12.2013 08:34 3,9 C 1,7 C 97 % 994,3 hPa 0,0 l/m 0 min 0 min 0,0 UV-I 0 W/m 0,0 km/h (0 Bft)
26.12.2013 08:36 3,8 C 1,7 C 97 % 994,2 hPa 0,0 l/m 0 min 0 min 0,0 UV-I 0 W/m 0,0 km/h (0 Bft)
26.12.2013 08:38 3,8 C 1,7 C 97 % 994,2 hPa 0,0 l/m 0 min 0 min 0,0 UV-I 0 W/m 0,0 km/h (0 Bft)
26.12.2013 08:40 3,7 C 2,2 C 97 % 994,3 hPa 0,0 l/m 0 min 0 min 0,0 UV-I 0 W/m 0,0 km/h (0 Bft)
26.12.2013 08:42 3,7 C 2,2 C 97 % 994,3 hPa 0,0 l/m 0 min 0 min 0,0 UV-I 0 W/m 0,0 km/h (0 Bft)
26.12.2013 08:44 3,7 C 2,2 C 97 % 994,3 hPa 0,0 l/m 0 min 0 min 0,0 UV-I 0 W/m 0,0 km/h (0 Bft)
26.12.2013 08:46 3,7 C 2,2 C 97 % 994,4 hPa 0,0 l/m 0 min 0 min 0,0 UV-I 0 W/m 0,0 km/h (0 Bft)
26.12.2013 08:48 3,6 C 2,2 C 97 % 994,4 hPa 0,0 l/m 0 min 0 min 0,0 UV-I 0 W/m 0,0 km/h (0 Bft)
26.12.2013 08:50 3,6 C 2,2 C 97 % 994,4 hPa 0,0 l/m 0 min 0 min 0,0 UV-I 5 W/m 0,0 km/h (0 Bft)
26.12.2013 08:52 3,6 C 2,2 C 97 % 994,5 hPa 0,0 l/m 0 min 0 min 0,0 UV-I 5 W/m 0,0 km/h (0 Bft)
26.12.2013 08:54 3,6 C 2,2 C 97 % 994,5 hPa 0,0 l/m 0 min 0 min 0,0 UV-I 5 W/m 0,0 km/h (0 Bft)
26.12.2013 08:56 3,6 C 2,2 C 97 % 994,5 hPa 0,0 l/m 0 min 0 min 0,0 UV-I 5 W/m 0,0 km/h (0 Bft)
26.12.2013 08:58 3,6 C 2,2 C 97 % 994,5 hPa 0,0 l/m 0 min 0 min 0,0 UV-I 5 W/m 0,0 km/h (0 Bft)
26.12.2013 09:00 3,6 C 2,2 C 97 % 994,5 hPa 0,0 l/m 0 min 0 min 0,0 UV-I 5 W/m 0,0 km/h (0 Bft)
26.12.2013 09:02 3,6 C 2,8 C 97 % 994,5 hPa 0,0 l/m 0 min 0 min 0,0 UV-I 7 W/m 0,0 km/h (0 Bft)
26.12.2013 09:04 3,6 C 2,8 C 97 % 994,5 hPa 0,0 l/m 0 min 0 min 0,0 UV-I 7 W/m 0,0 km/h (0 Bft)
26.12.2013 09:06 3,5 C 2,8 C 97 % 994,4 hPa 0,0 l/m 0 min 0 min 0,0 UV-I 9 W/m 0,0 km/h (0 Bft)
26.12.2013 09:08 3,5 C 2,8 C 97 % 994,3 hPa 0,0 l/m 0 min 0 min 0,0 UV-I 11 W/m 0,0 km/h (0 Bft)
26.12.2013 09:10 3,6 C 2,8 C 97 % 994,3 hPa 0,0 l/m 0 min 0 min 0,0 UV-I 12 W/m 0,0 km/h (0 Bft)
26.12.2013 09:12 3,6 C 2,8 C 97 % 994,3 hPa 0,0 l/m 0 min 0 min 0,0 UV-I 12 W/m 0,0 km/h (0 Bft)
26.12.2013 09:14 3,6 C 2,8 C 97 % 994,4 hPa 0,0 l/m 0 min 0 min 0,0 UV-I 16 W/m 0,0 km/h (0 Bft)
26.12.2013 09:16 3,6 C 2,8 C 97 % 994,4 hPa 0,0 l/m 0 min 0 min 0,0 UV-I 16 W/m 0,0 km/h (0 Bft)
26.12.2013 09:18 3,6 C 2,8 C 97 % 994,4 hPa 0,0 l/m 0 min 0 min 0,0 UV-I 18 W/m 0,0 km/h (0 Bft)
26.12.2013 09:20 3,6 C 2,8 C 97 % 994,4 hPa 0,0 l/m 0 min 0 min 0,0 UV-I 19 W/m 0,0 km/h (0 Bft)
26.12.2013 09:22 3,6 C 2,8 C 97 % 994,5 hPa 0,0 l/m 0 min 0 min 0,0 UV-I 19 W/m 0,0 km/h (0 Bft)
26.12.2013 09:24 3,6 C 2,8 C 97 % 994,6 hPa 0,0 l/m 0 min 0 min 0,0 UV-I 21 W/m 0,0 km/h (0 Bft)
26.12.2013 09:26 3,6 C 2,8 C 97 % 994,6 hPa 0,0 l/m 0 min 0 min 0,0 UV-I 23 W/m 0,0 km/h (0 Bft)
26.12.2013 09:28 3,6 C 2,8 C 97 % 994,7 hPa 0,0 l/m 0 min 0 min 0,0 UV-I 23 W/m 0,0 km/h (0 Bft)
26.12.2013 09:30 3,7 C 2,8 C 97 % 994,6 hPa 0,0 l/m 0 min 0 min 0,0 UV-I 23 W/m 0,0 km/h (0 Bft)
26.12.2013 09:32 3,7 C 2,8 C 97 % 994,7 hPa 0,0 l/m 0 min 0 min 0,0 UV-I 25 W/m 0,0 km/h (0 Bft)
26.12.2013 09:34 3,7 C 3,3 C 97 % 994,6 hPa 0,0 l/m 0 min 0 min 0,0 UV-I 25 W/m 0,0 km/h (0 Bft)
26.12.2013 09:36 3,7 C 3,3 C 97 % 994,8 hPa 0,0 l/m 0 min 0 min 0,0 UV-I 26 W/m 0,0 km/h (0 Bft)
26.12.2013 09:38 3,7 C 3,3 C 97 % 994,8 hPa 0,0 l/m 0 min 0 min 0,0 UV-I 26 W/m 0,0 km/h (0 Bft)
26.12.2013 09:40 3,7 C 3,3 C 97 % 994,9 hPa 0,0 l/m 0 min 0 min 0,0 UV-I 28 W/m 0,0 km/h (0 Bft)
26.12.2013 09:42 3,7 C 3,3 C 97 % 994,8 hPa 0,0 l/m 0 min 0 min 0,0 UV-I 30 W/m 0,0 km/h (0 Bft)
26.12.2013 09:44 3,7 C 3,3 C 97 % 994,9 hPa 0,0 l/m 0 min 0 min 0,0 UV-I 32 W/m 0,0 km/h (0 Bft)
26.12.2013 09:46 3,7 C 3,3 C 97 % 994,9 hPa 0,0 l/m 0 min 0 min 0,0 UV-I 33 W/m 0,0 km/h (0 Bft)
26.12.2013 09:48 3,8 C 3,3 C 97 % 994,9 hPa 0,0 l/m 0 min 0 min 0,0 UV-I 33 W/m 0,0 km/h (0 Bft)
26.12.2013 09:50 3,8 C 3,3 C 97 % 994,9 hPa 0,0 l/m 0 min 0 min 0,0 UV-I 35 W/m 0,0 km/h (0 Bft)
26.12.2013 09:52 3,8 C 3,3 C 97 % 994,9 hPa 0,0 l/m 0 min 0 min 0,0 UV-I 39 W/m 0,0 km/h (0 Bft)
26.12.2013 09:54 3,8 C 3,3 C 97 % 994,9 hPa 0,0 l/m 0 min 0 min 0,0 UV-I 40 W/m 0,0 km/h (0 Bft)
26.12.2013 09:56 3,8 C 3,3 C 97 % 994,9 hPa 0,0 l/m 0 min 0 min 0,0 UV-I 42 W/m 0,0 km/h (0 Bft)
26.12.2013 09:58 3,8 C 3,3 C 97 % 994,9 hPa 0,0 l/m 0 min 0 min 0,0 UV-I 42 W/m 0,0 km/h (0 Bft)
26.12.2013 10:00 3,9 C 3,3 C 97 % 994,9 hPa 0,0 l/m 0 min 0 min 0,0 UV-I 44 W/m 0,0 km/h (0 Bft)
26.12.2013 10:02 3,9 C 3,3 C 97 % 995,0 hPa 0,0 l/m 0 min 0 min 0,0 UV-I 44 W/m 0,0 km/h (0 Bft)
26.12.2013 10:04 3,9 C 3,9 C 97 % 995,1 hPa 0,0 l/m 0 min 0 min 0,0 UV-I 46 W/m 0,0 km/h (0 Bft)
26.12.2013 10:06 3,9 C 3,9 C 97 % 995,1 hPa 0,0 l/m 0 min 0 min 0,0 UV-I 47 W/m 0,0 km/h (0 Bft)
26.12.2013 10:08 3,9 C 3,9 C 97 % 995,2 hPa 0,0 l/m 0 min 0 min 0,0 UV-I 49 W/m 0,0 km/h (0 Bft)
26.12.2013 10:10 3,9 C 3,9 C 97 % 995,2 hPa 0,0 l/m 0 min 0 min 0,0 UV-I 49 W/m 0,0 km/h (0 Bft)
26.12.2013 10:12 4,0 C 3,9 C 97 % 995,3 hPa 0,0 l/m 0 min 0 min 0,0 UV-I 53 W/m 0,0 km/h (0 Bft)
26.12.2013 10:14 4,0 C 3,9 C 97 % 995,3 hPa 0,0 l/m 0 min 0 min 0,0 UV-I 54 W/m 0,0 km/h (0 Bft)
26.12.2013 10:16 4,0 C 3,9 C 97 % 995,2 hPa 0,0 l/m 0 min 0 min 0,0 UV-I 56 W/m 0,0 km/h (0 Bft)
26.12.2013 10:18 4,1 C 3,9 C 97 % 995,3 hPa 0,0 l/m 0 min 0 min 0,0 UV-I 56 W/m 0,0 km/h (0 Bft)
26.12.2013 10:20 4,1 C 3,9 C 97 % 995,3 hPa 0,0 l/m 0 min 0 min 0,0 UV-I 54 W/m 0,0 km/h (0 Bft)
26.12.2013 10:22 4,1 C 3,9 C 97 % 995,3 hPa 0,0 l/m 0 min 0 min 0,0 UV-I 54 W/m 0,0 km/h (0 Bft)
26.12.2013 10:24 4,1 C 3,9 C 97 % 995,3 hPa 0,0 l/m 0 min 0 min 0,0 UV-I 54 W/m 0,0 km/h (0 Bft)
26.12.2013 10:26 4,2 C 3,9 C 97 % 995,3 hPa 0,0 l/m 0 min 0 min 0,0 UV-I 54 W/m 0,0 km/h (0 Bft)
26.12.2013 10:28 4,2 C 3,9 C 97 % 995,4 hPa 0,0 l/m 0 min 0 min 0,0 UV-I 54 W/m 0,0 km/h (0 Bft)
26.12.2013 10:30 4,2 C 3,9 C 97 % 995,4 hPa 0,0 l/m 0 min 0 min 0,0 UV-I 54 W/m 0,0 km/h (0 Bft)
26.12.2013 10:32 4,2 C 3,9 C 97 % 995,5 hPa 0,0 l/m 0 min 0 min 0,0 UV-I 54 W/m 0,0 km/h (0 Bft)
26.12.2013 10:34 4,2 C 4,4 C 97 % 995,5 hPa 0,0 l/m 0 min 0 min 0,0 UV-I 56 W/m 0,0 km/h (0 Bft)
26.12.2013 10:36 4,3 C 4,4 C 97 % 995,5 hPa 0,0 l/m 0 min 0 min 0,0 UV-I 62 W/m 0,0 km/h (0 Bft)
26.12.2013 10:38 4,3 C 4,4 C 97 % 995,5 hPa 0,0 l/m 0 min 0 min 0,0 UV-I 65 W/m 0,0 km/h (0 Bft)
26.12.2013 10:40 4,3 C 4,4 C 97 % 995,5 hPa 0,0 l/m 0 min 0 min 0,0 UV-I 67 W/m 0,0 km/h (0 Bft)
26.12.2013 10:42 4,4 C 4,4 C 97 % 995,6 hPa 0,0 l/m 0 min 0 min 0,0 UV-I 70 W/m 0,0 km/h (0 Bft)
26.12.2013 10:44 4,4 C 4,4 C 97 % 995,6 hPa 0,0 l/m 0 min 0 min 0,0 UV-I 74 W/m 0,0 km/h (0 Bft)
26.12.2013 10:46 4,5 C 4,4 C 97 % 995,6 hPa 0,0 l/m 0 min 0 min 0,0 UV-I 76 W/m 0,0 km/h (0 Bft)
26.12.2013 10:48 4,7 C 4,4 C 97 % 995,6 hPa 0,0 l/m 0 min 0 min 0,0 UV-I 79 W/m 0,0 km/h (0 Bft)
26.12.2013 10:50 4,8 C 4,4 C 97 % 995,7 hPa 0,0 l/m 0 min 0 min 0,0 UV-I 81 W/m 0,0 km/h (0 Bft)
26.12.2013 10:52 4,9 C 4,4 C 97 % 995,7 hPa 0,0 l/m 0 min 0 min 0,0 UV-I 88 W/m 0,0 km/h (0 Bft)
26.12.2013 10:54 5,1 C 4,4 C 98 % 995,7 hPa 0,0 l/m 0 min 0 min 0,0 UV-I 95 W/m 0,0 km/h (0 Bft)
26.12.2013 10:56 5,2 C 4,4 C 98 % 995,7 hPa 0,0 l/m 0 min 0 min 0,0 UV-I 98 W/m 0,0 km/h (0 Bft)
26.12.2013 10:58 5,2 C 5,0 C 97 % 995,7 hPa 0,0 l/m 0 min 0 min 0,0 UV-I 100 W/m 0,0 km/h (0 Bft)
26.12.2013 11:00 5,3 C 5,0 C 97 % 995,7 hPa 0,0 l/m 0 min 0 min 0,0 UV-I 95 W/m 0,0 km/h (0 Bft)
26.12.2013 11:02 5,4 C 5,0 C 98 % 995,7 hPa 0,0 l/m 0 min 0 min 0,0 UV-I 91 W/m 0,0 km/h (0 Bft)
26.12.2013 11:04 5,4 C 5,0 C 98 % 995,7 hPa 0,0 l/m 0 min 0 min 0,0 UV-I 90 W/m 0,0 km/h (0 Bft)
26.12.2013 11:06 5,4 C 5,0 C 98 % 995,7 hPa 0,0 l/m 0 min 0 min 0,0 UV-I 93 W/m 0,0 km/h (0 Bft)
26.12.2013 11:08 5,5 C 5,0 C 98 % 995,7 hPa 0,0 l/m 0 min 0 min 0,0 UV-I 91 W/m 0,0 km/h (0 Bft)
26.12.2013 11:10 5,6 C 5,0 C 97 % 995,7 hPa 0,0 l/m 0 min 0 min 0,0 UV-I 86 W/m 0,0 km/h (0 Bft)
26.12.2013 11:12 5,6 C 5,0 C 97 % 995,8 hPa 0,0 l/m 0 min 0 min 0,0 UV-I 79 W/m 0,0 km/h (0 Bft)
26.12.2013 11:14 5,6 C 5,0 C 97 % 995,8 hPa 0,0 l/m 0 min 0 min 0,0 UV-I 77 W/m 0,0 km/h (0 Bft)
26.12.2013 11:16 5,6 C 5,0 C 98 % 995,9 hPa 0,0 l/m 0 min 0 min 0,0 UV-I 84 W/m 0,0 km/h (0 Bft)
26.12.2013 11:18 5,7 C 5,0 C 97 % 995,8 hPa 0,0 l/m 0 min 0 min 0,0 UV-I 93 W/m 0,0 km/h (0 Bft)
26.12.2013 11:20 5,7 C 5,0 C 97 % 995,9 hPa 0,0 l/m 0 min 0 min 0,0 UV-I 98 W/m 0,0 km/h (0 Bft)
26.12.2013 11:22 5,8 C 5,0 C 97 % 995,9 hPa 0,0 l/m 0 min 0 min 0,0 UV-I 102 W/m 0,0 km/h (0 Bft)
26.12.2013 11:24 5,9 C 5,0 C 97 % 995,8 hPa 0,0 l/m 0 min 0 min 0,0 UV-I 105 W/m 0,0 km/h (0 Bft)
26.12.2013 11:26 5,9 C 5,6 C 97 % 995,8 hPa 0,0 l/m 0 min 0 min 0,0 UV-I 105 W/m 0,0 km/h (0 Bft)
26.12.2013 11:28 6,0 C 5,6 C 97 % 995,8 hPa 0,0 l/m 0 min 0 min 0,0 UV-I 105 W/m 0,0 km/h (0 Bft)
26.12.2013 11:30 6,1 C 5,6 C 97 % 995,9 hPa 0,0 l/m 0 min 0 min 0,0 UV-I 105 W/m 0,0 km/h (0 Bft)
26.12.2013 11:32 6,2 C 5,6 C 97 % 995,9 hPa 0,0 l/m 0 min 0 min 0,0 UV-I 100 W/m 0,0 km/h (0 Bft)
26.12.2013 11:34 6,2 C 5,6 C 97 % 995,9 hPa 0,0 l/m 0 min 0 min 0,0 UV-I 86 W/m 0,0 km/h (0 Bft)
26.12.2013 11:36 6,2 C 5,6 C 97 % 995,9 hPa 0,0 l/m 0 min 0 min 0,0 UV-I 72 W/m 0,0 km/h (0 Bft)
26.12.2013 11:38 6,3 C 5,6 C 97 % 995,9 hPa 0,0 l/m 0 min 0 min 0,0 UV-I 65 W/m 0,0 km/h (0 Bft)
26.12.2013 11:40 6,3 C 5,6 C 97 % 995,9 hPa 0,0 l/m 0 min 0 min 0,0 UV-I 65 W/m 0,0 km/h (0 Bft)
26.12.2013 11:42 6,3 C 5,6 C 96 % 995,9 hPa 0,0 l/m 0 min 0 min 0,0 UV-I 70 W/m 2,6 km/h (1 Bft)
26.12.2013 11:44 6,3 C 5,6 C 96 % 995,9 hPa 0,0 l/m 0 min 0 min 0,0 UV-I 77 W/m 0,0 km/h (0 Bft)
26.12.2013 11:46 6,3 C 5,6 C 96 % 995,9 hPa 0,0 l/m 0 min 0 min 0,0 UV-I 91 W/m 0,0 km/h (0 Bft)
26.12.2013 11:48 6,3 C 5,6 C 96 % 995,9 hPa 0,0 l/m 0 min 0 min 0,0 UV-I 100 W/m 0,0 km/h (0 Bft)
26.12.2013 11:50 6,4 C 5,6 C 96 % 995,9 hPa 0,0 l/m 0 min 0 min 0,0 UV-I 105 W/m 0,0 km/h (0 Bft)
26.12.2013 11:52 6,4 C 5,6 C 96 % 995,9 hPa 0,0 l/m 0 min 0 min 0,0 UV-I 100 W/m 0,0 km/h (0 Bft)
26.12.2013 11:54 6,4 C 5,6 C 95 % 995,9 hPa 0,0 l/m 0 min 0 min 0,0 UV-I 98 W/m 0,0 km/h (0 Bft)
26.12.2013 11:56 6,5 C 5,6 C 95 % 995,9 hPa 0,0 l/m 0 min 0 min 0,0 UV-I 114 W/m 0,0 km/h (0 Bft)
26.12.2013 11:58 6,6 C 6,1 C 95 % 995,9 hPa 0,0 l/m 0 min 0 min 0,0 UV-I 113 W/m 0,0 km/h (0 Bft)
26.12.2013 12:00 6,6 C 6,1 C 95 % 996,0 hPa 0,0 l/m 0 min 0 min 0,0 UV-I 111 W/m 5,1 km/h (1 Bft)
26.12.2013 12:02 6,7 C 6,1 C 95 % 995,9 hPa 0,0 l/m 0 min 0 min 0,0 UV-I 114 W/m 0,0 km/h (0 Bft)
26.12.2013 12:04 6,8 C 6,1 C 95 % 995,9 hPa 0,0 l/m 0 min 0 min 0,0 UV-I 111 W/m 5,1 km/h (1 Bft)
26.12.2013 12:06 6,8 C 6,1 C 95 % 995,9 hPa 0,0 l/m 0 min 0 min 0,0 UV-I 111 W/m 0,0 km/h (0 Bft)
26.12.2013 12:08 6,9 C 6,1 C 95 % 996,0 hPa 0,0 l/m 0 min 0 min 0,0 UV-I 113 W/m 5,1 km/h (1 Bft)
26.12.2013 12:10 6,9 C 6,1 C 95 % 996,0 hPa 0,0 l/m 0 min 0 min 0,0 UV-I 109 W/m 5,1 km/h (1 Bft)
26.12.2013 12:12 6,9 C 6,1 C 94 % 995,9 hPa 0,0 l/m 0 min 0 min 0,0 UV-I 111 W/m 5,1 km/h (1 Bft)
26.12.2013 12:14 7,0 C 6,1 C 94 % 995,9 hPa 0,0 l/m 0 min 0 min 0,0 UV-I 111 W/m 0,0 km/h (0 Bft)
26.12.2013 12:16 7,1 C 6,1 C 94 % 996,0 hPa 0,0 l/m 0 min 0 min 0,0 UV-I 98 W/m 2,6 km/h (1 Bft)
26.12.2013 12:18 7,1 C 6,1 C 94 % 995,9 hPa 0,0 l/m 0 min 0 min 0,0 UV-I 97 W/m 0,0 km/h (0 Bft)
26.12.2013 12:20 7,1 C 6,1 C 93 % 996,0 hPa 0,0 l/m 0 min 0 min 0,0 UV-I 100 W/m 7,7 km/h (2 Bft)
26.12.2013 12:22 7,1 C 6,1 C 93 % 996,0 hPa 0,0 l/m 0 min 0 min 0,0 UV-I 109 W/m 10,3 km/h (2 Bft)
26.12.2013 12:24 7,1 C 6,1 C 93 % 996,0 hPa 0,0 l/m 0 min 0 min 0,0 UV-I 114 W/m 0,0 km/h (0 Bft)
26.12.2013 12:26 7,2 C 6,1 C 93 % 996,0 hPa 0,0 l/m 0 min 0 min 0,0 UV-I 121 W/m 0,0 km/h (0 Bft)
26.12.2013 12:28 7,2 C 6,7 C 93 % 995,9 hPa 0,0 l/m 0 min 0 min 0,0 UV-I 123 W/m 0,0 km/h (0 Bft)
26.12.2013 12:30 7,3 C 6,7 C 93 % 996,0 hPa 0,0 l/m 0 min 0 min 0,0 UV-I 123 W/m 0,0 km/h (0 Bft)
26.12.2013 12:32 7,3 C 6,7 C 93 % 996,0 hPa 0,0 l/m 0 min 0 min 0,0 UV-I 120 W/m 5,1 km/h (1 Bft)
26.12.2013 12:34 7,3 C 6,7 C 93 % 996,0 hPa 0,0 l/m 0 min 0 min 0,0 UV-I 114 W/m 0,0 km/h (0 Bft)
26.12.2013 12:36 7,3 C 6,7 C 92 % 996,0 hPa 0,0 l/m 0 min 0 min 0,0 UV-I 111 W/m 7,7 km/h (2 Bft)
26.12.2013 12:38 7,3 C 6,7 C 92 % 996,0 hPa 0,0 l/m 0 min 0 min 0,0 UV-I 104 W/m 18,0 km/h (3 Bft)
26.12.2013 12:40 7,3 C 6,7 C 92 % 995,9 hPa 0,0 l/m 0 min 0 min 0,0 UV-I 98 W/m 7,7 km/h (2 Bft)
26.12.2013 12:42 7,3 C 6,7 C 92 % 996,0 hPa 0,0 l/m 0 min 0 min 0,0 UV-I 100 W/m 7,7 km/h (2 Bft)
26.12.2013 12:44 7,3 C 6,7 C 92 % 995,9 hPa 0,0 l/m 0 min 0 min 0,0 UV-I 107 W/m 7,7 km/h (2 Bft)
26.12.2013 12:46 7,4 C 6,7 C 92 % 996,0 hPa 0,0 l/m 0 min 0 min 0,0 UV-I 118 W/m 0,0 km/h (0 Bft)
26.12.2013 12:48 7,4 C 6,7 C 91 % 996,0 hPa 0,0 l/m 0 min 0 min 0,0 UV-I 132 W/m 0,0 km/h (0 Bft)
26.12.2013 12:50 7,5 C 6,7 C 92 % 996,0 hPa 0,0 l/m 2 min 0 min 0,0 UV-I 160 W/m 0,0 km/h (0 Bft)
26.12.2013 12:52 7,6 C 6,7 C 92 % 996,0 hPa 0,0 l/m 2 min 0 min 0,0 UV-I 163 W/m 7,7 km/h (2 Bft)
26.12.2013 12:54 7,6 C 6,7 C 92 % 996,0 hPa 0,0 l/m 2 min 0 min 0,0 UV-I 158 W/m 0,0 km/h (0 Bft)
26.12.2013 12:56 7,7 C 7,2 C 91 % 996,0 hPa 0,0 l/m 2 min 0 min 0,0 UV-I 190 W/m 7,7 km/h (2 Bft)
26.12.2013 12:58 7,7 C 7,2 C 91 % 996,0 hPa 0,0 l/m 2 min 0 min 0,0 UV-I 213 W/m 7,7 km/h (2 Bft)
26.12.2013 13:00 7,8 C 7,2 C 91 % 996,0 hPa 0,0 l/m 2 min 0 min 0,0 UV-I 197 W/m 7,7 km/h (2 Bft)
26.12.2013 13:02 7,8 C 7,2 C 90 % 995,9 hPa 0,0 l/m 2 min 0 min 0,0 UV-I 149 W/m 7,7 km/h (2 Bft)
26.12.2013 13:04 7,8 C 7,2 C 90 % 995,9 hPa 0,0 l/m 0 min 0 min 0,0 UV-I 144 W/m 0,0 km/h (0 Bft)
26.12.2013 13:06 7,9 C 7,2 C 90 % 995,9 hPa 0,0 l/m 0 min 0 min 0,0 UV-I 146 W/m 10,3 km/h (2 Bft)
26.12.2013 13:08 7,8 C 7,2 C 90 % 996,0 hPa 0,0 l/m 0 min 0 min 0,0 UV-I 134 W/m 12,9 km/h (3 Bft)
26.12.2013 13:10 7,8 C 7,2 C 90 % 996,0 hPa 0,0 l/m 0 min 0 min 0,0 UV-I 127 W/m 7,7 km/h (2 Bft)
26.12.2013 13:12 7,8 C 6,7 C 90 % 996,0 hPa 0,0 l/m 0 min 0 min 0,0 UV-I 123 W/m 15,4 km/h (3 Bft)
26.12.2013 13:14 7,7 C 6,7 C 89 % 996,0 hPa 0,0 l/m 0 min 0 min 0,0 UV-I 128 W/m 7,7 km/h (2 Bft)
26.12.2013 13:16 7,7 C 7,2 C 89 % 996,0 hPa 0,0 l/m 0 min 0 min 0,0 UV-I 130 W/m 10,3 km/h (2 Bft)
26.12.2013 13:18 7,7 C 7,2 C 89 % 996,1 hPa 0,0 l/m 0 min 0 min 0,0 UV-I 135 W/m 7,7 km/h (2 Bft)
26.12.2013 13:20 7,8 C 7,2 C 90 % 996,1 hPa 0,0 l/m 0 min 0 min 0,0 UV-I 127 W/m 0,0 km/h (0 Bft)
26.12.2013 13:22 7,8 C 7,2 C 90 % 996,1 hPa 0,0 l/m 0 min 0 min 0,0 UV-I 139 W/m 12,9 km/h (3 Bft)
26.12.2013 13:24 7,8 C 7,2 C 90 % 996,2 hPa 0,0 l/m 0 min 0 min 0,0 UV-I 121 W/m 7,7 km/h (2 Bft)
26.12.2013 13:26 7,8 C 7,2 C 90 % 996,3 hPa 0,0 l/m 0 min 0 min 0,0 UV-I 118 W/m 5,1 km/h (1 Bft)
26.12.2013 13:28 7,8 C 7,2 C 90 % 996,2 hPa 0,0 l/m 0 min 0 min 0,0 UV-I 114 W/m 0,0 km/h (0 Bft)
26.12.2013 13:30 7,8 C 7,2 C 89 % 996,3 hPa 0,0 l/m 0 min 0 min 0,0 UV-I 114 W/m 15,4 km/h (3 Bft)
26.12.2013 13:32 7,8 C 7,2 C 89 % 996,2 hPa 0,0 l/m 0 min 0 min 0,0 UV-I 105 W/m 7,7 km/h (2 Bft)
26.12.2013 13:34 7,8 C 7,2 C 89 % 996,3 hPa 0,0 l/m 0 min 0 min 0,0 UV-I 98 W/m 10,3 km/h (2 Bft)
26.12.2013 13:36 7,8 C 7,2 C 89 % 996,3 hPa 0,0 l/m 0 min 0 min 0,0 UV-I 93 W/m 18,0 km/h (3 Bft)
26.12.2013 13:38 7,8 C 7,2 C 89 % 996,3 hPa 0,0 l/m 0 min 0 min 0,0 UV-I 88 W/m 10,3 km/h (2 Bft)
26.12.2013 13:40 7,8 C 7,2 C 89 % 996,4 hPa 0,0 l/m 0 min 0 min 0,0 UV-I 98 W/m 15,4 km/h (3 Bft)
26.12.2013 13:42 7,7 C 7,2 C 88 % 996,4 hPa 0,0 l/m 0 min 0 min 0,0 UV-I 111 W/m 7,7 km/h (2 Bft)
26.12.2013 13:44 7,7 C 7,2 C 88 % 996,4 hPa 0,0 l/m 0 min 0 min 0,0 UV-I 111 W/m 5,1 km/h (1 Bft)
26.12.2013 13:46 7,7 C 6,7 C 88 % 996,4 hPa 0,0 l/m 0 min 0 min 0,0 UV-I 109 W/m 10,3 km/h (2 Bft)
26.12.2013 13:48 7,7 C 6,7 C 88 % 996,4 hPa 0,0 l/m 0 min 0 min 0,0 UV-I 105 W/m 7,7 km/h (2 Bft)
26.12.2013 13:50 7,7 C 6,7 C 88 % 996,5 hPa 0,0 l/m 0 min 0 min 0,0 UV-I 104 W/m 10,3 km/h (2 Bft)
26.12.2013 13:52 7,7 C 6,7 C 88 % 996,5 hPa 0,0 l/m 0 min 0 min 0,0 UV-I 102 W/m 0,0 km/h (0 Bft)
26.12.2013 13:54 7,6 C 6,7 C 88 % 996,4 hPa 0,0 l/m 0 min 0 min 0,0 UV-I 102 W/m 5,1 km/h (1 Bft)
26.12.2013 13:56 7,6 C 6,7 C 88 % 996,4 hPa 0,0 l/m 0 min 0 min 0,0 UV-I 104 W/m 0,0 km/h (0 Bft)
26.12.2013 13:58 7,6 C 6,7 C 88 % 996,4 hPa 0,0 l/m 0 min 0 min 0,0 UV-I 102 W/m 5,1 km/h (1 Bft)
26.12.2013 14:00 7,6 C 6,7 C 88 % 996,4 hPa 0,0 l/m 0 min 0 min 0,0 UV-I 98 W/m 5,1 km/h (1 Bft)
26.12.2013 14:02 7,6 C 6,7 C 88 % 996,4 hPa 0,0 l/m 0 min 0 min 0,0 UV-I 93 W/m 5,1 km/h (1 Bft)
26.12.2013 14:04 7,6 C 6,7 C 88 % 996,5 hPa 0,0 l/m 0 min 0 min 0,0 UV-I 88 W/m 5,1 km/h (1 Bft)
26.12.2013 14:06 7,6 C 6,7 C 88 % 996,5 hPa 0,0 l/m 0 min 0 min 0,0 UV-I 79 W/m 7,7 km/h (2 Bft)
26.12.2013 14:08 7,6 C 6,7 C 88 % 996,5 hPa 0,0 l/m 0 min 0 min 0,0 UV-I 77 W/m 7,7 km/h (2 Bft)
26.12.2013 14:10 7,6 C 6,7 C 88 % 996,6 hPa 0,0 l/m 0 min 0 min 0,0 UV-I 76 W/m 7,7 km/h (2 Bft)
26.12.2013 14:12 7,5 C 6,7 C 88 % 996,7 hPa 0,0 l/m 0 min 0 min 0,0 UV-I 72 W/m 15,4 km/h (3 Bft)
26.12.2013 14:14 7,5 C 6,7 C 88 % 996,7 hPa 0,0 l/m 0 min 0 min 0,0 UV-I 69 W/m 5,1 km/h (1 Bft)
26.12.2013 14:16 7,5 C 6,7 C 88 % 996,7 hPa 0,0 l/m 0 min 0 min 0,0 UV-I 67 W/m 12,9 km/h (3 Bft)
26.12.2013 14:18 7,5 C 6,7 C 88 % 996,6 hPa 0,0 l/m 0 min 0 min 0,0 UV-I 65 W/m 12,9 km/h (3 Bft)
26.12.2013 14:20 7,4 C 6,7 C 88 % 996,7 hPa 0,0 l/m 0 min 0 min 0,0 UV-I 65 W/m 12,9 km/h (3 Bft)
26.12.2013 14:22 7,4 C 6,7 C 88 % 996,7 hPa 0,0 l/m 0 min 0 min 0,0 UV-I 67 W/m 2,6 km/h (1 Bft)
26.12.2013 14:24 7,4 C 6,7 C 88 % 996,8 hPa 0,0 l/m 0 min 0 min 0,0 UV-I 69 W/m 0,0 km/h (0 Bft)
26.12.2013 14:26 7,4 C 6,7 C 89 % 996,8 hPa 0,0 l/m 0 min 0 min 0,0 UV-I 70 W/m 0,0 km/h (0 Bft)
26.12.2013 14:28 7,4 C 6,7 C 89 % 996,8 hPa 0,0 l/m 0 min 0 min 0,0 UV-I 70 W/m 7,7 km/h (2 Bft)
26.12.2013 14:30 7,4 C 6,7 C 89 % 996,8 hPa 0,0 l/m 0 min 0 min 0,0 UV-I 74 W/m 2,6 km/h (1 Bft)
26.12.2013 14:32 7,4 C 6,7 C 89 % 996,9 hPa 0,0 l/m 0 min 0 min 0,0 UV-I 77 W/m 7,7 km/h (2 Bft)
26.12.2013 14:34 7,4 C 6,7 C 89 % 996,9 hPa 0,0 l/m 0 min 0 min 0,0 UV-I 83 W/m 7,7 km/h (2 Bft)
26.12.2013 14:36 7,4 C 6,7 C 89 % 997,0 hPa 0,0 l/m 0 min 0 min 0,0 UV-I 88 W/m 7,7 km/h (2 Bft)
26.12.2013 14:38 7,5 C 6,7 C 89 % 997,0 hPa 0,0 l/m 0 min 0 min 0,0 UV-I 88 W/m 0,0 km/h (0 Bft)
26.12.2013 14:40 7,5 C 6,7 C 89 % 996,9 hPa 0,0 l/m 0 min 0 min 0,0 UV-I 86 W/m 0,0 km/h (0 Bft)
26.12.2013 14:42 7,5 C 6,7 C 89 % 997,0 hPa 0,0 l/m 0 min 0 min 0,0 UV-I 79 W/m 0,0 km/h (0 Bft)
26.12.2013 14:44 7,5 C 6,7 C 89 % 997,1 hPa 0,0 l/m 0 min 0 min 0,0 UV-I 74 W/m 10,3 km/h (2 Bft)
26.12.2013 14:46 7,5 C 6,7 C 89 % 997,1 hPa 0,0 l/m 0 min 0 min 0,0 UV-I 69 W/m 2,6 km/h (1 Bft)
26.12.2013 14:48 7,4 C 6,7 C 89 % 997,1 hPa 0,0 l/m 0 min 0 min 0,0 UV-I 63 W/m 7,7 km/h (2 Bft)
26.12.2013 14:50 7,4 C 6,7 C 89 % 997,1 hPa 0,0 l/m 0 min 0 min 0,0 UV-I 62 W/m 0,0 km/h (0 Bft)
26.12.2013 14:52 7,4 C 6,7 C 89 % 997,1 hPa 0,0 l/m 0 min 0 min 0,0 UV-I 58 W/m 12,9 km/h (3 Bft)
26.12.2013 14:54 7,4 C 6,1 C 89 % 997,1 hPa 0,0 l/m 0 min 0 min 0,0 UV-I 54 W/m 12,9 km/h (3 Bft)
26.12.2013 14:56 7,4 C 6,1 C 89 % 997,1 hPa 0,0 l/m 0 min 0 min 0,0 UV-I 53 W/m 5,1 km/h (1 Bft)
26.12.2013 14:58 7,4 C 6,1 C 89 % 997,2 hPa 0,0 l/m 0 min 0 min 0,0 UV-I 49 W/m 5,1 km/h (1 Bft)
26.12.2013 15:00 7,3 C 6,1 C 89 % 997,3 hPa 0,0 l/m 0 min 0 min 0,0 UV-I 46 W/m 12,9 km/h (3 Bft)
26.12.2013 15:02 7,3 C 6,1 C 89 % 997,3 hPa 0,0 l/m 0 min 0 min 0,0 UV-I 42 W/m 5,1 km/h (1 Bft)
26.12.2013 15:04 7,3 C 6,1 C 89 % 997,4 hPa 0,0 l/m 0 min 0 min 0,0 UV-I 39 W/m 5,1 km/h (1 Bft)
26.12.2013 15:06 7,3 C 6,1 C 89 % 997,4 hPa 0,0 l/m 0 min 0 min 0,0 UV-I 33 W/m 2,6 km/h (1 Bft)
26.12.2013 15:08 7,3 C 6,1 C 89 % 997,5 hPa 0,0 l/m 0 min 0 min 0,0 UV-I 30 W/m 0,0 km/h (0 Bft)
26.12.2013 15:10 7,3 C 6,1 C 89 % 997,5 hPa 0,0 l/m 0 min 0 min 0,0 UV-I 28 W/m 5,1 km/h (1 Bft)
26.12.2013 15:12 7,3 C 6,1 C 89 % 997,5 hPa 0,0 l/m 0 min 0 min 0,0 UV-I 28 W/m 2,6 km/h (1 Bft)
26.12.2013 15:14 7,3 C 6,1 C 90 % 997,5 hPa 0,0 l/m 0 min 0 min 0,0 UV-I 28 W/m 7,7 km/h (2 Bft)
26.12.2013 15:16 7,3 C 6,1 C 90 % 997,6 hPa 0,0 l/m 0 min 0 min 0,0 UV-I 26 W/m 2,6 km/h (1 Bft)
26.12.2013 15:18 7,3 C 6,1 C 90 % 997,7 hPa 0,0 l/m 0 min 0 min 0,0 UV-I 25 W/m 5,1 km/h (1 Bft)
26.12.2013 15:20 7,3 C 6,1 C 90 % 997,7 hPa 0,0 l/m 0 min 0 min 0,0 UV-I 23 W/m 5,1 km/h (1 Bft)
26.12.2013 15:22 7,3 C 6,1 C 90 % 997,7 hPa 0,0 l/m 0 min 0 min 0,0 UV-I 19 W/m 7,7 km/h (2 Bft)
26.12.2013 15:24 7,3 C 6,1 C 90 % 997,8 hPa 0,0 l/m 0 min 0 min 0,0 UV-I 18 W/m 0,0 km/h (0 Bft)
26.12.2013 15:26 7,3 C 6,1 C 90 % 997,8 hPa 0,0 l/m 0 min 0 min 0,0 UV-I 16 W/m 2,6 km/h (1 Bft)
26.12.2013 15:28 7,3 C 6,1 C 90 % 997,8 hPa 0,0 l/m 0 min 0 min 0,0 UV-I 14 W/m 7,7 km/h (2 Bft)
26.12.2013 15:30 7,3 C 6,1 C 90 % 997,9 hPa 0,0 l/m 0 min 0 min 0,0 UV-I 12 W/m 7,7 km/h (2 Bft)
26.12.2013 15:32 7,3 C 6,1 C 90 % 998,0 hPa 0,0 l/m 0 min 0 min 0,0 UV-I 12 W/m 0,0 km/h (0 Bft)
26.12.2013 15:34 7,3 C 6,1 C 90 % 998,0 hPa 0,0 l/m 0 min 0 min 0,0 UV-I 11 W/m 0,0 km/h (0 Bft)
26.12.2013 15:36 7,3 C 6,1 C 90 % 998,1 hPa 0,0 l/m 0 min 0 min 0,0 UV-I 11 W/m 5,1 km/h (1 Bft)
26.12.2013 15:38 7,3 C 6,1 C 90 % 998,1 hPa 0,0 l/m 0 min 0 min 0,0 UV-I 12 W/m 2,6 km/h (1 Bft)
26.12.2013 15:40 7,3 C 6,1 C 90 % 998,2 hPa 0,0 l/m 0 min 0 min 0,0 UV-I 14 W/m 7,7 km/h (2 Bft)
26.12.2013 15:42 7,3 C 6,1 C 90 % 998,2 hPa 0,0 l/m 0 min 0 min 0,0 UV-I 14 W/m 5,1 km/h (1 Bft)
26.12.2013 15:44 7,3 C 6,1 C 90 % 998,2 hPa 0,0 l/m 0 min 0 min 0,0 UV-I 14 W/m 7,7 km/h (2 Bft)
26.12.2013 15:46 7,3 C 6,1 C 90 % 998,3 hPa 0,0 l/m 0 min 0 min 0,0 UV-I 14 W/m 5,1 km/h (1 Bft)
26.12.2013 15:48 7,3 C 6,1 C 90 % 998,3 hPa 0,0 l/m 0 min 0 min 0,0 UV-I 12 W/m 5,1 km/h (1 Bft)
26.12.2013 15:50 7,3 C 6,1 C 90 % 998,3 hPa 0,0 l/m 0 min 0 min 0,0 UV-I 12 W/m 15,4 km/h (3 Bft)
26.12.2013 15:52 7,2 C 6,1 C 90 % 998,3 hPa 0,0 l/m 0 min 0 min 0,0 UV-I 12 W/m 12,9 km/h (3 Bft)
26.12.2013 15:54 7,2 C 6,1 C 90 % 998,3 hPa 0,0 l/m 0 min 0 min 0,0 UV-I 12 W/m 7,7 km/h (2 Bft)
26.12.2013 15:56 7,2 C 6,1 C 90 % 998,3 hPa 0,0 l/m 0 min 0 min 0,0 UV-I 14 W/m 7,7 km/h (2 Bft)
26.12.2013 15:58 7,2 C 6,1 C 90 % 998,3 hPa 0,0 l/m 0 min 0 min 0,0 UV-I 16 W/m 7,7 km/h (2 Bft)
26.12.2013 16:00 7,2 C 6,1 C 90 % 998,3 hPa 0,0 l/m 0 min 0 min 0,0 UV-I 21 W/m 7,7 km/h (2 Bft)
26.12.2013 16:02 7,2 C 6,1 C 90 % 998,3 hPa 0,0 l/m 0 min 0 min 0,0 UV-I 26 W/m 7,7 km/h (2 Bft)
26.12.2013 16:04 7,2 C 6,1 C 90 % 998,3 hPa 0,0 l/m 0 min 0 min 0,0 UV-I 26 W/m 10,3 km/h (2 Bft)
26.12.2013 16:06 7,2 C 6,1 C 90 % 998,4 hPa 0,0 l/m 0 min 0 min 0,0 UV-I 26 W/m 18,0 km/h (3 Bft)
26.12.2013 16:08 7,2 C 6,1 C 89 % 998,4 hPa 0,0 l/m 0 min 0 min 0,0 UV-I 26 W/m 5,1 km/h (1 Bft)
26.12.2013 16:10 7,2 C 5,6 C 89 % 998,3 hPa 0,0 l/m 0 min 0 min 0,0 UV-I 26 W/m 10,3 km/h (2 Bft)
26.12.2013 16:12 7,2 C 5,6 C 89 % 998,3 hPa 0,0 l/m 0 min 0 min 0,0 UV-I 25 W/m 2,6 km/h (1 Bft)
26.12.2013 16:14 7,2 C 5,6 C 89 % 998,3 hPa 0,0 l/m 0 min 0 min 0,0 UV-I 21 W/m 7,7 km/h (2 Bft)
26.12.2013 16:16 7,1 C 5,6 C 89 % 998,3 hPa 0,0 l/m 0 min 0 min 0,0 UV-I 19 W/m 5,1 km/h (1 Bft)
26.12.2013 16:18 7,1 C 5,6 C 89 % 998,2 hPa 0,0 l/m 0 min 0 min 0,0 UV-I 18 W/m 0,0 km/h (0 Bft)
26.12.2013 16:20 7,1 C 5,6 C 89 % 998,3 hPa 0,0 l/m 0 min 0 min 0,0 UV-I 18 W/m 0,0 km/h (0 Bft)
26.12.2013 16:22 7,1 C 5,6 C 89 % 998,4 hPa 0,0 l/m 0 min 0 min 0,0 UV-I 16 W/m 0,0 km/h (0 Bft)
26.12.2013 16:24 7,1 C 5,6 C 89 % 998,4 hPa 0,0 l/m 0 min 0 min 0,0 UV-I 14 W/m 0,0 km/h (0 Bft)
26.12.2013 16:26 7,1 C 5,6 C 89 % 998,4 hPa 0,0 l/m 0 min 0 min 0,0 UV-I 12 W/m 5,1 km/h (1 Bft)
26.12.2013 16:28 7,0 C 5,0 C 89 % 998,4 hPa 0,0 l/m 0 min 0 min 0,0 UV-I 11 W/m 2,6 km/h (1 Bft)
26.12.2013 16:30 7,0 C 5,0 C 89 % 998,4 hPa 0,0 l/m 0 min 0 min 0,0 UV-I 11 W/m 2,6 km/h (1 Bft)
26.12.2013 16:32 6,9 C 5,0 C 89 % 998,4 hPa 0,0 l/m 0 min 0 min 0,0 UV-I 11 W/m 7,7 km/h (2 Bft)
26.12.2013 16:34 6,9 C 5,0 C 89 % 998,5 hPa 0,0 l/m 0 min 0 min 0,0 UV-I 11 W/m 7,7 km/h (2 Bft)
26.12.2013 16:36 6,9 C 5,0 C 89 % 998,5 hPa 0,0 l/m 0 min 0 min 0,0 UV-I 11 W/m 2,6 km/h (1 Bft)
26.12.2013 16:38 6,9 C 5,0 C 89 % 998,5 hPa 0,0 l/m 0 min 0 min 0,0 UV-I 9 W/m 0,0 km/h (0 Bft)
26.12.2013 16:40 6,9 C 5,0 C 89 % 998,6 hPa 0,0 l/m 0 min 0 min 0,0 UV-I 9 W/m 5,1 km/h (1 Bft)
26.12.2013 16:42 6,8 C 5,0 C 89 % 998,6 hPa 0,0 l/m 0 min 0 min 0,0 UV-I 9 W/m 5,1 km/h (1 Bft)
26.12.2013 16:44 6,8 C 5,0 C 89 % 998,7 hPa 0,0 l/m 0 min 0 min 0,0 UV-I 7 W/m 5,1 km/h (1 Bft)
26.12.2013 16:46 6,8 C 5,0 C 89 % 998,7 hPa 0,0 l/m 0 min 0 min 0,0 UV-I 5 W/m 0,0 km/h (0 Bft)
26.12.2013 16:48 6,7 C 5,0 C 89 % 998,7 hPa 0,0 l/m 0 min 0 min 0,0 UV-I 0 W/m 0,0 km/h (0 Bft)
26.12.2013 16:50 6,7 C 5,0 C 89 % 998,8 hPa 0,0 l/m 0 min 0 min 0,0 UV-I 0 W/m 7,7 km/h (2 Bft)
26.12.2013 16:52 6,7 C 4,4 C 89 % 998,9 hPa 0,0 l/m 0 min 0 min 0,0 UV-I 0 W/m 5,1 km/h (1 Bft)
26.12.2013 16:54 6,7 C 4,4 C 89 % 999,0 hPa 0,0 l/m 0 min 0 min 0,0 UV-I 0 W/m 0,0 km/h (0 Bft)
26.12.2013 16:56 6,6 C 4,4 C 89 % 999,1 hPa 0,0 l/m 0 min 0 min 0,0 UV-I 0 W/m 7,7 km/h (2 Bft)
26.12.2013 16:58 6,6 C 4,4 C 89 % 999,1 hPa 0,0 l/m 0 min 0 min 0,0 UV-I 0 W/m 5,1 km/h (1 Bft)
26.12.2013 17:00 6,6 C 4,4 C 89 % 999,1 hPa 0,0 l/m 0 min 0 min 0,0 UV-I 0 W/m 0,0 km/h (0 Bft)
26.12.2013 17:02 6,5 C 4,4 C 89 % 999,2 hPa 0,0 l/m 0 min 0 min 0,0 UV-I 0 W/m 0,0 km/h (0 Bft)
26.12.2013 17:04 6,5 C 4,4 C 89 % 999,3 hPa 0,0 l/m 0 min 0 min 0,0 UV-I 0 W/m 2,6 km/h (1 Bft)
26.12.2013 17:06 6,4 C 4,4 C 89 % 999,2 hPa 0,0 l/m 0 min 0 min 0,0 UV-I 0 W/m 0,0 km/h (0 Bft)
26.12.2013 17:08 6,4 C 4,4 C 89 % 999,3 hPa 0,0 l/m 0 min 0 min 0,0 UV-I 0 W/m 0,0 km/h (0 Bft)
26.12.2013 17:10 6,4 C 4,4 C 89 % 999,4 hPa 0,0 l/m 0 min 0 min 0,0 UV-I 0 W/m 0,0 km/h (0 Bft)
26.12.2013 17:12 6,4 C 4,4 C 89 % 999,4 hPa 0,0 l/m 0 min 0 min 0,0 UV-I 0 W/m 0,0 km/h (0 Bft)
26.12.2013 17:14 6,3 C 4,4 C 89 % 999,4 hPa 0,0 l/m 0 min 0 min 0,0 UV-I 0 W/m 0,0 km/h (0 Bft)
26.12.2013 17:16 6,3 C 4,4 C 89 % 999,5 hPa 0,0 l/m 0 min 0 min 0,0 UV-I 0 W/m 0,0 km/h (0 Bft)
26.12.2013 17:18 6,3 C 4,4 C 89 % 999,5 hPa 0,0 l/m 0 min 0 min 0,0 UV-I 0 W/m 0,0 km/h (0 Bft)
26.12.2013 17:20 6,3 C 4,4 C 89 % 999,5 hPa 0,0 l/m 0 min 0 min 0,0 UV-I 0 W/m 0,0 km/h (0 Bft)
26.12.2013 17:22 6,2 C 4,4 C 89 % 999,5 hPa 0,0 l/m 0 min 0 min 0,0 UV-I 0 W/m 0,0 km/h (0 Bft)
26.12.2013 17:24 6,2 C 4,4 C 89 % 999,5 hPa 0,0 l/m 0 min 0 min 0,0 UV-I 0 W/m 0,0 km/h (0 Bft)
26.12.2013 17:26 6,2 C 4,4 C 89 % 999,6 hPa 0,0 l/m 0 min 0 min 0,0 UV-I 0 W/m 0,0 km/h (0 Bft)
26.12.2013 17:28 6,2 C 4,4 C 89 % 999,6 hPa 0,0 l/m 0 min 0 min 0,0 UV-I 0 W/m 0,0 km/h (0 Bft)
26.12.2013 17:30 6,1 C 4,4 C 89 % 999,6 hPa 0,0 l/m 0 min 0 min 0,0 UV-I 0 W/m 0,0 km/h (0 Bft)
26.12.2013 17:32 6,1 C 4,4 C 89 % 999,7 hPa 0,0 l/m 0 min 0 min 0,0 UV-I 0 W/m 0,0 km/h (0 Bft)
26.12.2013 17:34 6,1 C 4,4 C 89 % 999,8 hPa 0,0 l/m 0 min 0 min 0,0 UV-I 0 W/m 0,0 km/h (0 Bft)
26.12.2013 17:36 6,1 C 4,4 C 89 % 999,8 hPa 0,0 l/m 0 min 0 min 0,0 UV-I 0 W/m 0,0 km/h (0 Bft)
26.12.2013 17:38 6,1 C 4,4 C 89 % 999,8 hPa 0,0 l/m 0 min 0 min 0,0 UV-I 0 W/m 0,0 km/h (0 Bft)
26.12.2013 17:40 6,1 C 4,4 C 89 % 999,9 hPa 0,0 l/m 0 min 0 min 0,0 UV-I 0 W/m 0,0 km/h (0 Bft)
26.12.2013 17:42 6,1 C 4,4 C 90 % 999,8 hPa 0,0 l/m 0 min 0 min 0,0 UV-I 0 W/m 2,6 km/h (1 Bft)
26.12.2013 17:44 6,0 C 4,4 C 90 % 999,8 hPa 0,0 l/m 0 min 0 min 0,0 UV-I 0 W/m 0,0 km/h (0 Bft)
26.12.2013 17:46 6,0 C 4,4 C 90 % 999,9 hPa 0,0 l/m 0 min 0 min 0,0 UV-I 0 W/m 0,0 km/h (0 Bft)
26.12.2013 17:48 6,0 C 4,4 C 90 % 999,9 hPa 0,0 l/m 0 min 0 min 0,0 UV-I 0 W/m 0,0 km/h (0 Bft)
26.12.2013 17:50 6,0 C 4,4 C 90 % 999,9 hPa 0,0 l/m 0 min 0 min 0,0 UV-I 0 W/m 7,7 km/h (2 Bft)
26.12.2013 17:52 5,9 C 4,4 C 90 % 999,9 hPa 0,0 l/m 0 min 0 min 0,0 UV-I 0 W/m 5,1 km/h (1 Bft)
26.12.2013 17:54 5,9 C 4,4 C 90 % 999,9 hPa 0,0 l/m 0 min 0 min 0,0 UV-I 0 W/m 5,1 km/h (1 Bft)
26.12.2013 17:56 5,9 C 4,4 C 90 % 999,8 hPa 0,0 l/m 0 min 0 min 0,0 UV-I 0 W/m 7,7 km/h (2 Bft)
26.12.2013 17:58 5,9 C 4,4 C 90 % 999,9 hPa 0,0 l/m 0 min 0 min 0,0 UV-I 0 W/m 7,7 km/h (2 Bft)
26.12.2013 18:00 5,9 C 4,4 C 90 % 999,8 hPa 0,0 l/m 0 min 0 min 0,0 UV-I 0 W/m 5,1 km/h (1 Bft)
26.12.2013 18:02 5,9 C 4,4 C 90 % 999,9 hPa 0,0 l/m 0 min 0 min 0,0 UV-I 0 W/m 0,0 km/h (0 Bft)
26.12.2013 18:04 5,9 C 4,4 C 91 % 999,9 hPa 0,0 l/m 0 min 0 min 0,0 UV-I 0 W/m 5,1 km/h (1 Bft)
26.12.2013 18:06 5,9 C 4,4 C 91 % 999,9 hPa 0,0 l/m 0 min 0 min 0,0 UV-I 0 W/m 5,1 km/h (1 Bft)
26.12.2013 18:08 5,9 C 4,4 C 91 % 999,9 hPa 0,0 l/m 0 min 0 min 0,0 UV-I 0 W/m 5,1 km/h (1 Bft)
26.12.2013 18:10 5,9 C 4,4 C 91 % 1000,0 hPa 0,0 l/m 0 min 0 min 0,0 UV-I 0 W/m 2,6 km/h (1 Bft)
26.12.2013 18:12 5,9 C 4,4 C 91 % 1000,0 hPa 0,0 l/m 0 min 0 min 0,0 UV-I 0 W/m 0,0 km/h (0 Bft)
26.12.2013 18:14 5,8 C 4,4 C 91 % 1000,0 hPa 0,0 l/m 0 min 0 min 0,0 UV-I 0 W/m 0,0 km/h (0 Bft)
26.12.2013 18:16 5,8 C 4,4 C 91 % 1000,1 hPa 0,0 l/m 0 min 0 min 0,0 UV-I 0 W/m 0,0 km/h (0 Bft)
26.12.2013 18:18 5,8 C 4,4 C 91 % 1000,2 hPa 0,0 l/m 0 min 0 min 0,0 UV-I 0 W/m 0,0 km/h (0 Bft)
26.12.2013 18:20 5,8 C 4,4 C 91 % 1000,2 hPa 0,0 l/m 0 min 0 min 0,0 UV-I 0 W/m 0,0 km/h (0 Bft)
26.12.2013 18:22 5,8 C 4,4 C 91 % 1000,2 hPa 0,0 l/m 0 min 0 min 0,0 UV-I 0 W/m 0,0 km/h (0 Bft)
26.12.2013 18:24 5,8 C 4,4 C 91 % 1000,3 hPa 0,0 l/m 0 min 0 min 0,0 UV-I 0 W/m 0,0 km/h (0 Bft)
26.12.2013 18:26 5,8 C 4,4 C 91 % 1000,3 hPa 0,0 l/m 0 min 0 min 0,0 UV-I 0 W/m 0,0 km/h (0 Bft)
26.12.2013 18:28 5,8 C 3,9 C 91 % 1000,3 hPa 0,0 l/m 0 min 0 min 0,0 UV-I 0 W/m 2,6 km/h (1 Bft)
26.12.2013 18:30 5,7 C 4,4 C 91 % 1000,4 hPa 0,0 l/m 0 min 0 min 0,0 UV-I 0 W/m 10,3 km/h (2 Bft)
26.12.2013 18:32 5,7 C 3,9 C 91 % 1000,4 hPa 0,0 l/m 0 min 0 min 0,0 UV-I 0 W/m 2,6 km/h (1 Bft)
26.12.2013 18:34 5,7 C 3,9 C 91 % 1000,4 hPa 0,0 l/m 0 min 0 min 0,0 UV-I 0 W/m 0,0 km/h (0 Bft)
26.12.2013 18:36 5,7 C 3,9 C 91 % 1000,4 hPa 0,0 l/m 0 min 0 min 0,0 UV-I 0 W/m 2,6 km/h (1 Bft)
26.12.2013 18:38 5,7 C 3,9 C 91 % 1000,5 hPa 0,0 l/m 0 min 0 min 0,0 UV-I 0 W/m 0,0 km/h (0 Bft)
26.12.2013 18:40 5,7 C 3,9 C 91 % 1000,5 hPa 0,0 l/m 0 min 0 min 0,0 UV-I 0 W/m 0,0 km/h (0 Bft)
26.12.2013 18:42 5,7 C 3,9 C 91 % 1000,5 hPa 0,0 l/m 0 min 0 min 0,0 UV-I 0 W/m 0,0 km/h (0 Bft)
26.12.2013 18:44 5,7 C 3,9 C 91 % 1000,6 hPa 0,0 l/m 0 min 0 min 0,0 UV-I 0 W/m 0,0 km/h (0 Bft)
26.12.2013 18:46 5,6 C 3,9 C 91 % 1000,7 hPa 0,0 l/m 0 min 0 min 0,0 UV-I 0 W/m 0,0 km/h (0 Bft)
26.12.2013 18:48 5,6 C 3,9 C 91 % 1000,8 hPa 0,0 l/m 0 min 0 min 0,0 UV-I 0 W/m 0,0 km/h (0 Bft)
26.12.2013 18:50 5,6 C 3,9 C 91 % 1000,9 hPa 0,0 l/m 0 min 0 min 0,0 UV-I 0 W/m 0,0 km/h (0 Bft)
26.12.2013 18:52 5,6 C 3,9 C 91 % 1000,9 hPa 0,0 l/m 0 min 0 min 0,0 UV-I 0 W/m 0,0 km/h (0 Bft)
26.12.2013 18:54 5,5 C 3,9 C 91 % 1000,9 hPa 0,0 l/m 0 min 0 min 0,0 UV-I 0 W/m 0,0 km/h (0 Bft)
26.12.2013 18:56 5,5 C 3,3 C 91 % 1000,9 hPa 0,0 l/m 0 min 0 min 0,0 UV-I 0 W/m 0,0 km/h (0 Bft)
26.12.2013 18:58 5,5 C 3,3 C 91 % 1000,9 hPa 0,0 l/m 0 min 0 min 0,0 UV-I 0 W/m 0,0 km/h (0 Bft)
26.12.2013 19:00 5,5 C 3,9 C 91 % 1000,9 hPa 0,0 l/m 0 min 0 min 0,0 UV-I 0 W/m 0,0 km/h (0 Bft)
26.12.2013 19:02 5,4 C 3,3 C 91 % 1000,9 hPa 0,0 l/m 0 min 0 min 0,0 UV-I 0 W/m 0,0 km/h (0 Bft)
26.12.2013 19:04 5,4 C 3,3 C 91 % 1001,0 hPa 0,0 l/m 0 min 0 min 0,0 UV-I 0 W/m 0,0 km/h (0 Bft)
26.12.2013 19:06 5,4 C 3,3 C 91 % 1000,9 hPa 0,0 l/m 0 min 0 min 0,0 UV-I 0 W/m 2,6 km/h (1 Bft)
26.12.2013 19:08 5,4 C 3,3 C 91 % 1000,9 hPa 0,0 l/m 0 min 0 min 0,0 UV-I 0 W/m 0,0 km/h (0 Bft)
26.12.2013 19:10 5,4 C 3,9 C 91 % 1001,0 hPa 0,0 l/m 0 min 0 min 0,0 UV-I 0 W/m 2,6 km/h (1 Bft)
26.12.2013 19:12 5,3 C 3,3 C 91 % 1001,1 hPa 0,0 l/m 0 min 0 min 0,0 UV-I 0 W/m 2,6 km/h (1 Bft)
26.12.2013 19:14 5,3 C 3,9 C 92 % 1001,2 hPa 0,0 l/m 0 min 0 min 0,0 UV-I 0 W/m 2,6 km/h (1 Bft)
26.12.2013 19:16 5,3 C 3,9 C 92 % 1001,2 hPa 0,0 l/m 0 min 0 min 0,0 UV-I 0 W/m 2,6 km/h (1 Bft)
26.12.2013 19:18 5,3 C 3,9 C 92 % 1001,4 hPa 0,0 l/m 0 min 0 min 0,0 UV-I 0 W/m 0,0 km/h (0 Bft)
26.12.2013 19:20 5,3 C 3,9 C 92 % 1001,5 hPa 0,0 l/m 0 min 0 min 0,0 UV-I 0 W/m 0,0 km/h (0 Bft)
26.12.2013 19:22 5,3 C 3,3 C 92 % 1001,5 hPa 0,0 l/m 0 min 0 min 0,0 UV-I 0 W/m 0,0 km/h (0 Bft)
26.12.2013 19:24 5,2 C 3,3 C 92 % 1001,4 hPa 0,0 l/m 0 min 0 min 0,0 UV-I 0 W/m 5,1 km/h (1 Bft)
26.12.2013 19:26 5,2 C 3,3 C 92 % 1001,5 hPa 0,0 l/m 0 min 0 min 0,0 UV-I 0 W/m 0,0 km/h (0 Bft)
26.12.2013 19:28 5,2 C 3,3 C 92 % 1001,6 hPa 0,0 l/m 0 min 0 min 0,0 UV-I 0 W/m 2,6 km/h (1 Bft)
26.12.2013 19:30 5,2 C 3,3 C 92 % 1001,6 hPa 0,0 l/m 0 min 0 min 0,0 UV-I 0 W/m 0,0 km/h (0 Bft)
26.12.2013 19:32 5,2 C 3,3 C 92 % 1001,6 hPa 0,0 l/m 0 min 0 min 0,0 UV-I 0 W/m 0,0 km/h (0 Bft)
26.12.2013 19:34 5,2 C 3,9 C 92 % 1001,7 hPa 0,0 l/m 0 min 0 min 0,0 UV-I 0 W/m 7,7 km/h (2 Bft)
26.12.2013 19:36 5,2 C 3,3 C 92 % 1001,7 hPa 0,0 l/m 0 min 0 min 0,0 UV-I 0 W/m 2,6 km/h (1 Bft)
26.12.2013 19:38 5,2 C 3,3 C 92 % 1001,7 hPa 0,0 l/m 0 min 0 min 0,0 UV-I 0 W/m 0,0 km/h (0 Bft)
26.12.2013 19:40 5,2 C 3,3 C 92 % 1001,8 hPa 0,0 l/m 0 min 0 min 0,0 UV-I 0 W/m 7,7 km/h (2 Bft)
26.12.2013 19:42 5,2 C 3,3 C 92 % 1001,8 hPa 0,0 l/m 0 min 0 min 0,0 UV-I 0 W/m 0,0 km/h (0 Bft)
26.12.2013 19:44 5,1 C 3,3 C 92 % 1001,8 hPa 0,0 l/m 0 min 0 min 0,0 UV-I 0 W/m 0,0 km/h (0 Bft)
26.12.2013 19:46 5,1 C 3,3 C 92 % 1001,7 hPa 0,0 l/m 0 min 0 min 0,0 UV-I 0 W/m 5,1 km/h (1 Bft)
26.12.2013 19:48 5,1 C 3,9 C 92 % 1001,8 hPa 0,0 l/m 0 min 0 min 0,0 UV-I 0 W/m 2,6 km/h (1 Bft)
26.12.2013 19:50 5,1 C 3,9 C 92 % 1001,8 hPa 0,0 l/m 0 min 0 min 0,0 UV-I 0 W/m 2,6 km/h (1 Bft)
26.12.2013 19:52 5,1 C 3,9 C 92 % 1001,8 hPa 0,0 l/m 0 min 0 min 0,0 UV-I 0 W/m 0,0 km/h (0 Bft)
26.12.2013 19:54 5,1 C 3,9 C 92 % 1001,9 hPa 0,0 l/m 0 min 0 min 0,0 UV-I 0 W/m 5,1 km/h (1 Bft)
26.12.2013 19:56 5,1 C 3,9 C 92 % 1001,8 hPa 0,0 l/m 0 min 0 min 0,0 UV-I 0 W/m 0,0 km/h (0 Bft)
26.12.2013 19:58 5,1 C 3,9 C 92 % 1001,9 hPa 0,0 l/m 0 min 0 min 0,0 UV-I 0 W/m 12,9 km/h (3 Bft)
26.12.2013 20:00 5,1 C 3,9 C 92 % 1001,9 hPa 0,0 l/m 0 min 0 min 0,0 UV-I 0 W/m 2,6 km/h (1 Bft)
26.12.2013 20:02 5,1 C 3,9 C 93 % 1001,9 hPa 0,0 l/m 0 min 0 min 0,0 UV-I 0 W/m 5,1 km/h (1 Bft)
26.12.2013 20:04 5,1 C 3,9 C 93 % 1001,9 hPa 0,0 l/m 0 min 0 min 0,0 UV-I 0 W/m 2,6 km/h (1 Bft)
26.12.2013 20:06 5,1 C 3,9 C 93 % 1001,9 hPa 0,0 l/m 0 min 0 min 0,0 UV-I 0 W/m 0,0 km/h (0 Bft)
26.12.2013 20:08 5,1 C 3,9 C 93 % 1001,8 hPa 0,0 l/m 0 min 0 min 0,0 UV-I 0 W/m 0,0 km/h (0 Bft)
26.12.2013 20:10 5,1 C 3,9 C 93 % 1001,8 hPa 0,0 l/m 0 min 0 min 0,0 UV-I 0 W/m 5,1 km/h (1 Bft)
26.12.2013 20:12 5,2 C 3,9 C 93 % 1001,9 hPa 0,0 l/m 0 min 0 min 0,0 UV-I 0 W/m 0,0 km/h (0 Bft)
26.12.2013 20:14 5,2 C 3,9 C 93 % 1001,9 hPa 0,0 l/m 0 min 0 min 0,0 UV-I 0 W/m 0,0 km/h (0 Bft)
26.12.2013 20:16 5,2 C 3,9 C 93 % 1001,8 hPa 0,0 l/m 0 min 0 min 0,0 UV-I 0 W/m 0,0 km/h (0 Bft)
26.12.2013 20:18 5,1 C 3,3 C 93 % 1001,8 hPa 0,0 l/m 0 min 0 min 0,0 UV-I 0 W/m 2,6 km/h (1 Bft)
26.12.2013 20:20 5,1 C 3,3 C 93 % 1001,9 hPa 0,0 l/m 0 min 0 min 0,0 UV-I 0 W/m 0,0 km/h (0 Bft)
26.12.2013 20:22 5,1 C 3,3 C 93 % 1001,9 hPa 0,0 l/m 0 min 0 min 0,0 UV-I 0 W/m 0,0 km/h (0 Bft)
26.12.2013 20:24 5,1 C 3,3 C 93 % 1001,9 hPa 0,0 l/m 0 min 0 min 0,0 UV-I 0 W/m 2,6 km/h (1 Bft)
26.12.2013 20:26 5,1 C 3,3 C 93 % 1001,9 hPa 0,0 l/m 0 min 0 min 0,0 UV-I 0 W/m 7,7 km/h (2 Bft)
26.12.2013 20:28 5,1 C 3,3 C 93 % 1002,0 hPa 0,0 l/m 0 min 0 min 0,0 UV-I 0 W/m 0,0 km/h (0 Bft)
26.12.2013 20:30 5,1 C 3,3 C 93 % 1002,0 hPa 0,0 l/m 0 min 0 min 0,0 UV-I 0 W/m 0,0 km/h (0 Bft)
26.12.2013 20:32 5,0 C 3,3 C 93 % 1002,1 hPa 0,0 l/m 0 min 0 min 0,0 UV-I 0 W/m 0,0 km/h (0 Bft)
26.12.2013 20:34 5,0 C 3,3 C 93 % 1002,1 hPa 0,0 l/m 0 min 0 min 0,0 UV-I 0 W/m 0,0 km/h (0 Bft)
26.12.2013 20:36 5,0 C 3,3 C 93 % 1002,1 hPa 0,0 l/m 0 min 0 min 0,0 UV-I 0 W/m 0,0 km/h (0 Bft)
26.12.2013 20:38 4,9 C 3,3 C 93 % 1002,1 hPa 0,0 l/m 0 min 0 min 0,0 UV-I 0 W/m 5,1 km/h (1 Bft)
26.12.2013 20:40 4,9 C 3,3 C 93 % 1002,2 hPa 0,0 l/m 0 min 0 min 0,0 UV-I 0 W/m 2,6 km/h (1 Bft)
26.12.2013 20:42 4,9 C 3,3 C 93 % 1002,2 hPa 0,0 l/m 0 min 0 min 0,0 UV-I 0 W/m 0,0 km/h (0 Bft)
26.12.2013 20:44 4,9 C 2,8 C 93 % 1002,4 hPa 0,0 l/m 0 min 0 min 0,0 UV-I 0 W/m 0,0 km/h (0 Bft)
26.12.2013 20:46 4,9 C 3,3 C 93 % 1002,4 hPa 0,0 l/m 0 min 0 min 0,0 UV-I 0 W/m 0,0 km/h (0 Bft)
26.12.2013 20:48 4,9 C 3,3 C 93 % 1002,4 hPa 0,0 l/m 0 min 0 min 0,0 UV-I 0 W/m 0,0 km/h (0 Bft)
26.12.2013 20:50 4,9 C 3,3 C 93 % 1002,4 hPa 0,0 l/m 0 min 0 min 0,0 UV-I 0 W/m 0,0 km/h (0 Bft)
26.12.2013 20:52 4,8 C 3,3 C 93 % 1002,5 hPa 0,0 l/m 0 min 0 min 0,0 UV-I 0 W/m 7,7 km/h (2 Bft)
26.12.2013 20:54 4,8 C 3,3 C 93 % 1002,5 hPa 0,0 l/m 0 min 0 min 0,0 UV-I 0 W/m 0,0 km/h (0 Bft)
26.12.2013 20:56 4,8 C 3,3 C 93 % 1002,5 hPa 0,0 l/m 0 min 0 min 0,0 UV-I 0 W/m 5,1 km/h (1 Bft)
26.12.2013 20:58 4,8 C 3,3 C 93 % 1002,5 hPa 0,0 l/m 0 min 0 min 0,0 UV-I 0 W/m 5,1 km/h (1 Bft)
26.12.2013 21:00 4,8 C 3,3 C 93 % 1002,5 hPa 0,0 l/m 0 min 0 min 0,0 UV-I 0 W/m 0,0 km/h (0 Bft)
26.12.2013 21:02 4,8 C 3,3 C 93 % 1002,5 hPa 0,0 l/m 0 min 0 min 0,0 UV-I 0 W/m 0,0 km/h (0 Bft)
26.12.2013 21:04 4,8 C 3,3 C 93 % 1002,5 hPa 0,0 l/m 0 min 0 min 0,0 UV-I 0 W/m 2,6 km/h (1 Bft)
26.12.2013 21:06 4,8 C 3,3 C 93 % 1002,5 hPa 0,0 l/m 0 min 0 min 0,0 UV-I 0 W/m 0,0 km/h (0 Bft)
26.12.2013 21:08 4,8 C 3,3 C 93 % 1002,5 hPa 0,0 l/m 0 min 0 min 0,0 UV-I 0 W/m 0,0 km/h (0 Bft)
26.12.2013 21:10 4,7 C 3,3 C 93 % 1002,5 hPa 0,0 l/m 0 min 0 min 0,0 UV-I 0 W/m 0,0 km/h (0 Bft)
26.12.2013 21:12 4,7 C 3,3 C 93 % 1002,6 hPa 0,0 l/m 0 min 0 min 0,0 UV-I 0 W/m 2,6 km/h (1 Bft)
26.12.2013 21:14 4,7 C 3,3 C 93 % 1002,5 hPa 0,0 l/m 0 min 0 min 0,0 UV-I 0 W/m 0,0 km/h (0 Bft)
26.12.2013 21:16 4,7 C 3,3 C 93 % 1002,4 hPa 0,0 l/m 0 min 0 min 0,0 UV-I 0 W/m 0,0 km/h (0 Bft)
26.12.2013 21:18 4,7 C 3,3 C 93 % 1002,5 hPa 0,0 l/m 0 min 0 min 0,0 UV-I 0 W/m 0,0 km/h (0 Bft)
26.12.2013 21:20 4,7 C 3,3 C 93 % 1002,5 hPa 0,0 l/m 0 min 0 min 0,0 UV-I 0 W/m 0,0 km/h (0 Bft)
26.12.2013 21:22 4,7 C 3,3 C 93 % 1002,7 hPa 0,0 l/m 0 min 0 min 0,0 UV-I 0 W/m 0,0 km/h (0 Bft)
26.12.2013 21:24 4,7 C 3,3 C 93 % 1002,8 hPa 0,0 l/m 0 min 0 min 0,0 UV-I 0 W/m 7,7 km/h (2 Bft)
26.12.2013 21:26 4,7 C 2,8 C 93 % 1002,9 hPa 0,0 l/m 0 min 0 min 0,0 UV-I 0 W/m 0,0 km/h (0 Bft)
26.12.2013 21:28 4,7 C 2,8 C 93 % 1002,8 hPa 0,0 l/m 0 min 0 min 0,0 UV-I 0 W/m 0,0 km/h (0 Bft)
26.12.2013 21:30 4,7 C 2,8 C 93 % 1002,8 hPa 0,0 l/m 0 min 0 min 0,0 UV-I 0 W/m 0,0 km/h (0 Bft)
26.12.2013 21:32 4,6 C 2,8 C 93 % 1002,9 hPa 0,0 l/m 0 min 0 min 0,0 UV-I 0 W/m 5,1 km/h (1 Bft)
26.12.2013 21:34 4,6 C 2,8 C 93 % 1003,0 hPa 0,0 l/m 0 min 0 min 0,0 UV-I 0 W/m 0,0 km/h (0 Bft)
26.12.2013 21:36 4,6 C 2,8 C 93 % 1003,0 hPa 0,0 l/m 0 min 0 min 0,0 UV-I 0 W/m 0,0 km/h (0 Bft)
26.12.2013 21:38 4,6 C 2,8 C 93 % 1003,0 hPa 0,0 l/m 0 min 0 min 0,0 UV-I 0 W/m 0,0 km/h (0 Bft)
26.12.2013 21:40 4,6 C 2,8 C 93 % 1002,9 hPa 0,0 l/m 0 min 0 min 0,0 UV-I 0 W/m 0,0 km/h (0 Bft)
26.12.2013 21:42 4,6 C 3,3 C 93 % 1003,0 hPa 0,0 l/m 0 min 0 min 0,0 UV-I 0 W/m 5,1 km/h (1 Bft)
26.12.2013 21:44 4,6 C 3,3 C 93 % 1003,0 hPa 0,0 l/m 0 min 0 min 0,0 UV-I 0 W/m 2,6 km/h (1 Bft)
26.12.2013 21:46 4,6 C 3,3 C 93 % 1003,1 hPa 0,0 l/m 0 min 0 min 0,0 UV-I 0 W/m 0,0 km/h (0 Bft)
26.12.2013 21:48 4,6 C 3,3 C 93 % 1003,1 hPa 0,0 l/m 0 min 0 min 0,0 UV-I 0 W/m 0,0 km/h (0 Bft)
26.12.2013 21:50 4,6 C 3,3 C 94 % 1003,0 hPa 0,0 l/m 0 min 0 min 0,0 UV-I 0 W/m 7,7 km/h (2 Bft)
26.12.2013 21:52 4,6 C 3,3 C 94 % 1003,0 hPa 0,0 l/m 0 min 0 min 0,0 UV-I 0 W/m 2,6 km/h (1 Bft)
26.12.2013 21:54 4,6 C 3,3 C 94 % 1003,0 hPa 0,0 l/m 0 min 0 min 0,0 UV-I 0 W/m 2,6 km/h (1 Bft)
26.12.2013 21:56 4,6 C 3,3 C 94 % 1003,0 hPa 0,0 l/m 0 min 0 min 0,0 UV-I 0 W/m 10,3 km/h (2 Bft)
26.12.2013 21:58 4,6 C 3,3 C 94 % 1003,1 hPa 0,0 l/m 0 min 0 min 0,0 UV-I 0 W/m 0,0 km/h (0 Bft)
26.12.2013 22:00 4,6 C 3,3 C 94 % 1003,1 hPa 0,0 l/m 0 min 0 min 0,0 UV-I 0 W/m 0,0 km/h (0 Bft)
26.12.2013 22:02 4,6 C 3,3 C 94 % 1003,2 hPa 0,0 l/m 0 min 0 min 0,0 UV-I 0 W/m 7,7 km/h (2 Bft)
26.12.2013 22:04 4,6 C 3,3 C 94 % 1003,1 hPa 0,0 l/m 0 min 0 min 0,0 UV-I 0 W/m 5,1 km/h (1 Bft)
26.12.2013 22:06 4,6 C 3,3 C 94 % 1003,1 hPa 0,0 l/m 0 min 0 min 0,0 UV-I 0 W/m 7,7 km/h (2 Bft)
26.12.2013 22:08 4,6 C 3,3 C 94 % 1003,1 hPa 0,0 l/m 0 min 0 min 0,0 UV-I 0 W/m 7,7 km/h (2 Bft)
26.12.2013 22:10 4,6 C 3,3 C 94 % 1003,1 hPa 0,0 l/m 0 min 0 min 0,0 UV-I 0 W/m 5,1 km/h (1 Bft)
26.12.2013 22:12 4,6 C 2,8 C 94 % 1003,1 hPa 0,0 l/m 0 min 0 min 0,0 UV-I 0 W/m 0,0 km/h (0 Bft)
26.12.2013 22:14 4,6 C 2,8 C 94 % 1003,1 hPa 0,0 l/m 0 min 0 min 0,0 UV-I 0 W/m 0,0 km/h (0 Bft)
26.12.2013 22:16 4,6 C 2,8 C 94 % 1003,1 hPa 0,0 l/m 0 min 0 min 0,0 UV-I 0 W/m 0,0 km/h (0 Bft)
26.12.2013 22:18 4,6 C 2,8 C 94 % 1003,1 hPa 0,0 l/m 0 min 0 min 0,0 UV-I 0 W/m 0,0 km/h (0 Bft)
26.12.2013 22:20 4,5 C 2,8 C 94 % 1003,2 hPa 0,0 l/m 0 min 0 min 0,0 UV-I 0 W/m 2,6 km/h (1 Bft)
26.12.2013 22:22 4,5 C 2,8 C 94 % 1003,1 hPa 0,0 l/m 0 min 0 min 0,0 UV-I 0 W/m 7,7 km/h (2 Bft)
26.12.2013 22:24 4,4 C 2,8 C 94 % 1003,1 hPa 0,0 l/m 0 min 0 min 0,0 UV-I 0 W/m 7,7 km/h (2 Bft)
26.12.2013 22:26 4,4 C 2,8 C 94 % 1003,0 hPa 0,0 l/m 0 min 0 min 0,0 UV-I 0 W/m 0,0 km/h (0 Bft)
26.12.2013 22:28 4,4 C 2,8 C 94 % 1003,0 hPa 0,0 l/m 0 min 0 min 0,0 UV-I 0 W/m 0,0 km/h (0 Bft)
26.12.2013 22:30 4,4 C 2,8 C 94 % 1003,0 hPa 0,0 l/m 0 min 0 min 0,0 UV-I 0 W/m 0,0 km/h (0 Bft)
26.12.2013 22:32 4,4 C 2,8 C 94 % 1003,0 hPa 0,0 l/m 0 min 0 min 0,0 UV-I 0 W/m 5,1 km/h (1 Bft)
26.12.2013 22:34 4,4 C 2,8 C 94 % 1003,0 hPa 0,0 l/m 0 min 0 min 0,0 UV-I 0 W/m 5,1 km/h (1 Bft)
26.12.2013 22:36 4,4 C 2,8 C 94 % 1003,0 hPa 0,0 l/m 0 min 0 min 0,0 UV-I 0 W/m 0,0 km/h (0 Bft)
26.12.2013 22:38 4,4 C 2,8 C 94 % 1003,1 hPa 0,0 l/m 0 min 0 min 0,0 UV-I 0 W/m 0,0 km/h (0 Bft)
26.12.2013 22:40 4,3 C 2,8 C 94 % 1003,1 hPa 0,0 l/m 0 min 0 min 0,0 UV-I 0 W/m 0,0 km/h (0 Bft)
26.12.2013 22:42 4,3 C 2,8 C 94 % 1003,0 hPa 0,0 l/m 0 min 0 min 0,0 UV-I 0 W/m 0,0 km/h (0 Bft)
26.12.2013 22:44 4,3 C 2,8 C 94 % 1003,0 hPa 0,0 l/m 0 min 0 min 0,0 UV-I 0 W/m 0,0 km/h (0 Bft)
26.12.2013 22:46 4,3 C 2,8 C 94 % 1003,0 hPa 0,0 l/m 0 min 0 min 0,0 UV-I 0 W/m 0,0 km/h (0 Bft)
26.12.2013 22:48 4,3 C 2,8 C 94 % 1003,0 hPa 0,0 l/m 0 min 0 min 0,0 UV-I 0 W/m 0,0 km/h (0 Bft)
26.12.2013 22:50 4,3 C 2,2 C 94 % 1003,0 hPa 0,0 l/m 0 min 0 min 0,0 UV-I 0 W/m 0,0 km/h (0 Bft)
26.12.2013 22:52 4,2 C 2,2 C 94 % 1002,9 hPa 0,0 l/m 0 min 0 min 0,0 UV-I 0 W/m 0,0 km/h (0 Bft)
26.12.2013 22:54 4,2 C 2,2 C 94 % 1002,7 hPa 0,0 l/m 0 min 0 min 0,0 UV-I 0 W/m 0,0 km/h (0 Bft)
26.12.2013 22:56 4,2 C 2,2 C 94 % 1002,8 hPa 0,0 l/m 0 min 0 min 0,0 UV-I 0 W/m 0,0 km/h (0 Bft)
26.12.2013 22:58 4,2 C 2,2 C 94 % 1002,8 hPa 0,0 l/m 0 min 0 min 0,0 UV-I 0 W/m 0,0 km/h (0 Bft)
26.12.2013 23:00 4,2 C 2,2 C 94 % 1002,9 hPa 0,0 l/m 0 min 0 min 0,0 UV-I 0 W/m 5,1 km/h (1 Bft)
26.12.2013 23:02 4,2 C 2,2 C 94 % 1002,9 hPa 0,0 l/m 0 min 0 min 0,0 UV-I 0 W/m 0,0 km/h (0 Bft)
26.12.2013 23:04 4,2 C 2,2 C 94 % 1002,9 hPa 0,0 l/m 0 min 0 min 0,0 UV-I 0 W/m 0,0 km/h (0 Bft)
26.12.2013 23:06 4,1 C 2,2 C 94 % 1003,0 hPa 0,0 l/m 0 min 0 min 0,0 UV-I 0 W/m 0,0 km/h (0 Bft)
26.12.2013 23:08 4,1 C 2,2 C 94 % 1003,0 hPa 0,0 l/m 0 min 0 min 0,0 UV-I 0 W/m 0,0 km/h (0 Bft)
26.12.2013 23:10 4,1 C 2,2 C 94 % 1003,1 hPa 0,0 l/m 0 min 0 min 0,0 UV-I 0 W/m 2,6 km/h (1 Bft)
26.12.2013 23:12 4,1 C 2,2 C 94 % 1003,1 hPa 0,0 l/m 0 min 0 min 0,0 UV-I 0 W/m 0,0 km/h (0 Bft)
26.12.2013 23:14 4,1 C 2,2 C 94 % 1003,1 hPa 0,0 l/m 0 min 0 min 0,0 UV-I 0 W/m 5,1 km/h (1 Bft)
26.12.2013 23:16 4,1 C 2,2 C 94 % 1003,1 hPa 0,0 l/m 0 min 0 min 0,0 UV-I 0 W/m 2,6 km/h (1 Bft)
26.12.2013 23:18 4,1 C 2,2 C 94 % 1003,1 hPa 0,0 l/m 0 min 0 min 0,0 UV-I 0 W/m 2,6 km/h (1 Bft)
26.12.2013 23:20 4,1 C 2,2 C 94 % 1003,0 hPa 0,0 l/m 0 min 0 min 0,0 UV-I 0 W/m 0,0 km/h (0 Bft)
26.12.2013 23:22 4,0 C 2,2 C 94 % 1003,0 hPa 0,0 l/m 0 min 0 min 0,0 UV-I 0 W/m 0,0 km/h (0 Bft)
26.12.2013 23:24 4,0 C 2,2 C 94 % 1003,0 hPa 0,0 l/m 0 min 0 min 0,0 UV-I 0 W/m 2,6 km/h (1 Bft)
26.12.2013 23:26 4,0 C 2,2 C 94 % 1003,1 hPa 0,0 l/m 0 min 0 min 0,0 UV-I 0 W/m 7,7 km/h (2 Bft)
26.12.2013 23:28 4,0 C 2,2 C 94 % 1003,1 hPa 0,0 l/m 0 min 0 min 0,0 UV-I 0 W/m 10,3 km/h (2 Bft)
26.12.2013 23:30 4,0 C 2,8 C 94 % 1003,1 hPa 0,0 l/m 0 min 0 min 0,0 UV-I 0 W/m 7,7 km/h (2 Bft)
26.12.2013 23:32 4,0 C 2,8 C 94 % 1003,1 hPa 0,0 l/m 0 min 0 min 0,0 UV-I 0 W/m 15,4 km/h (3 Bft)
26.12.2013 23:34 4,0 C 2,8 C 95 % 1003,1 hPa 0,0 l/m 0 min 0 min 0,0 UV-I 0 W/m 7,7 km/h (2 Bft)
26.12.2013 23:36 4,0 C 2,8 C 95 % 1003,1 hPa 0,0 l/m 0 min 0 min 0,0 UV-I 0 W/m 0,0 km/h (0 Bft)
26.12.2013 23:38 4,0 C 2,8 C 95 % 1003,1 hPa 0,0 l/m 0 min 0 min 0,0 UV-I 0 W/m 10,3 km/h (2 Bft)
26.12.2013 23:40 4,0 C 2,8 C 95 % 1003,1 hPa 0,0 l/m 0 min 0 min 0,0 UV-I 0 W/m 10,3 km/h (2 Bft)
26.12.2013 23:42 4,0 C 2,8 C 95 % 1003,1 hPa 0,0 l/m 0 min 0 min 0,0 UV-I 0 W/m 7,7 km/h (2 Bft)
26.12.2013 23:44 4,0 C 2,8 C 95 % 1003,1 hPa 0,0 l/m 0 min 0 min 0,0 UV-I 0 W/m 7,7 km/h (2 Bft)
26.12.2013 23:46 4,0 C 2,8 C 95 % 1003,1 hPa 0,0 l/m 0 min 0 min 0,0 UV-I 0 W/m 5,1 km/h (1 Bft)
26.12.2013 23:48 4,0 C 2,8 C 95 % 1003,1 hPa 0,0 l/m 0 min 0 min 0,0 UV-I 0 W/m 2,6 km/h (1 Bft)
26.12.2013 23:50 4,0 C 2,8 C 95 % 1003,1 hPa 0,0 l/m 0 min 0 min 0,0 UV-I 0 W/m 5,1 km/h (1 Bft)
26.12.2013 23:52 4,0 C 2,8 C 95 % 1003,2 hPa 0,0 l/m 0 min 0 min 0,0 UV-I 0 W/m 5,1 km/h (1 Bft)
26.12.2013 23:54 4,0 C 2,8 C 95 % 1003,2 hPa 0,0 l/m 0 min 0 min 0,0 UV-I 0 W/m 7,7 km/h (2 Bft)
26.12.2013 23:56 4,0 C 2,8 C 95 % 1003,3 hPa 0,0 l/m 0 min 0 min 0,0 UV-I 0 W/m 2,6 km/h (1 Bft)
26.12.2013 23:58 4,0 C 2,8 C 95 % 1003,2 hPa 0,0 l/m 0 min 0 min 0,0 UV-I 0 W/m 0,0 km/h (0 Bft)
_ Min-Zeit 00:00 00:00 13:42 03:20 - - - - - 00:02
Minimum _ 2,7 C 1,7 C 88 % 992,4 hPa - - - - - 0,0 km/h (0 Bft)
_ Max-Zeit 13:06 12:56 08:18 23:56 00:00 12:50 00:00 00:00 12:58 12:38
Maximum _ 7,9 C 7,2 C 100 % 1003,3 hPa 0,0 l/m 2 min 0 min 0,0 UV-I 213 W/m 18,0 km/h
W-SW (3 Bft)
Durchschnitt _ 5,1 C 3,9 C 94 % 996,7 hPa #0,0 l/m #14 min. #0 min. 0,0 UV-I 66 W/m 2,4 km/h (1 Bft)
© 2013 W. Hausmann